Time,TemperatureF,DewpointF,PressureIn,WindDirection,WindDirectionDegrees,WindSpeedMPH,WindSpeedGustMPH,Humidity,HourlyPrecipIn,Conditions,Clouds,dailyrainin,SoftwareType,DateUTC
2013-05-04 00:00:00,61.4,52.3,29.83,ESE,113,4.0,5.4,72,0.00,,,0.00,WUHU216HW,2013-05-04 04:00:00,
2013-05-04 00:01:00,61.4,52.3,29.83,ESE,113,4.0,5.4,72,0.00,,,0.00,WUHU216HW,2013-05-04 04:01:00,
2013-05-04 00:02:00,61.6,52.5,29.83,ESE,113,4.7,5.4,72,0.00,,,0.00,WUHU216HW,2013-05-04 04:02:00,
2013-05-04 00:06:00,61.4,52.3,29.82,SSE,161,5.5,6.3,72,0.00,,,0.00,WUHU216HW,2013-05-04 04:06:00,
2013-05-04 00:07:00,61.4,52.3,29.83,ESE,116,4.1,6.3,72,0.00,,,0.00,WUHU216HW,2013-05-04 04:07:00,
2013-05-04 00:08:00,61.4,52.3,29.82,ESE,118,3.0,6.3,72,0.00,,,0.00,WUHU216HW,2013-05-04 04:08:00,
2013-05-04 00:13:00,61.4,52.3,29.82,SW,225,3.8,6.9,72,0.00,,,0.00,WUHU216HW,2013-05-04 04:13:00,
2013-05-04 00:14:00,61.2,52.2,29.82,ESE,113,5.4,6.9,72,0.00,,,0.00,WUHU216HW,2013-05-04 04:14:00,
2013-05-04 00:15:00,61.2,52.2,29.82,ESE,113,3.7,6.9,72,0.00,,,0.00,WUHU216HW,2013-05-04 04:15:00,
2013-05-04 00:18:00,61.2,52.6,29.82,SE,135,15.0,15.0,73,0.00,,,0.00,WUHU216HW,2013-05-04 04:18:00,
2013-05-04 00:19:00,61.2,52.6,29.82,SE,135,15.0,15.0,73,0.00,,,0.00,WUHU216HW,2013-05-04 04:19:00,
2013-05-04 00:22:00,61.2,52.6,29.82,SE,135,4.9,15.0,73,0.00,,,0.00,WUHU216HW,2013-05-04 04:22:00,
2013-05-04 00:23:00,61.2,52.6,29.82,SSE,158,6.9,15.0,73,0.00,,,0.00,WUHU216HW,2013-05-04 04:23:00,
2013-05-04 00:24:00,61.2,52.6,29.83,SSE,166,5.4,15.0,73,0.00,,,0.00,WUHU216HW,2013-05-04 04:24:00,
2013-05-04 00:25:00,61.2,52.6,29.83,SSE,166,5.4,15.0,73,0.00,,,0.00,WUHU216HW,2013-05-04 04:25:00,
2013-05-04 00:28:00,61.0,52.4,29.83,SSE,158,4.9,15.0,73,0.00,,,0.00,WUHU216HW,2013-05-04 04:28:00,
2013-05-04 00:29:00,61.0,52.4,29.83,SSE,158,6.9,6.9,73,0.00,,,0.00,WUHU216HW,2013-05-04 04:29:00,
2013-05-04 00:30:00,61.0,52.4,29.83,SSE,147,6.6,6.9,73,0.00,,,0.00,WUHU216HW,2013-05-04 04:30:00,
2013-05-04 00:34:00,60.8,52.2,29.83,SSE,158,3.8,6.9,73,0.00,,,0.00,WUHU216HW,2013-05-04 04:34:00,
2013-05-04 00:35:00,60.8,52.6,29.83,SE,135,5.4,6.9,74,0.00,,,0.00,WUHU216HW,2013-05-04 04:35:00,
2013-05-04 00:36:00,60.7,52.4,29.83,SW,225,5.4,6.9,74,0.00,,,0.00,WUHU216HW,2013-05-04 04:36:00,
2013-05-04 00:37:00,60.7,52.4,29.83,ESE,113,8.3,8.3,74,0.00,,,0.00,WUHU216HW,2013-05-04 04:37:00,
2013-05-04 00:40:00,60.5,52.2,29.82,WSW,248,4.3,8.3,74,0.00,,,0.00,WUHU216HW,2013-05-04 04:40:00,
2013-05-04 00:41:00,60.5,52.2,29.83,SSW,207,3.6,8.3,74,0.00,,,0.00,WUHU216HW,2013-05-04 04:41:00,
2013-05-04 00:42:00,60.5,52.6,29.82,SW,225,4.9,8.3,75,0.00,,,0.00,WUHU216HW,2013-05-04 04:42:00,
2013-05-04 00:45:00,60.5,52.6,29.82,SE,135,4.3,8.3,75,0.00,,,0.00,WUHU216HW,2013-05-04 04:45:00,
2013-05-04 00:46:00,60.5,52.6,29.82,SE,145,3.9,4.9,75,0.00,,,0.00,WUHU216HW,2013-05-04 04:46:00,
2013-05-04 00:47:00,60.5,52.6,29.82,SE,145,3.9,4.9,75,0.00,,,0.00,WUHU216HW,2013-05-04 04:47:00,
2013-05-04 00:51:00,60.5,52.2,29.82,ESE,108,5.3,8.3,74,0.00,,,0.00,WUHU216HW,2013-05-04 04:51:00,
2013-05-04 00:52:00,60.5,52.2,29.82,SSW,203,3.8,8.3,74,0.00,,,0.00,WUHU216HW,2013-05-04 04:52:00,
2013-05-04 00:54:00,60.5,52.2,29.82,SE,135,3.5,8.3,74,0.00,,,0.00,WUHU216HW,2013-05-04 04:54:00,
2013-05-04 00:57:00,60.5,52.2,29.82,SE,135,3.4,8.3,74,0.00,,,0.00,WUHU216HW,2013-05-04 04:57:00,
2013-05-04 00:59:00,60.5,52.2,29.82,ESE,113,5.4,8.3,74,0.00,,,0.00,WUHU216HW,2013-05-04 04:59:00,
2013-05-04 01:00:00,60.5,52.2,29.82,SE,135,7.2,7.2,74,0.00,,,0.00,WUHU216HW,2013-05-04 05:00:00,
2013-05-04 01:02:00,60.5,52.2,29.82,SSE,163,5.4,8.1,74,0.00,,,0.00,WUHU216HW,2013-05-04 05:02:00,
2013-05-04 01:03:00,60.5,51.8,29.82,SE,135,6.3,8.1,73,0.00,,,0.00,WUHU216HW,2013-05-04 05:03:00,
2013-05-04 01:04:00,60.5,51.8,29.82,ESE,118,5.2,8.1,73,0.00,,,0.00,WUHU216HW,2013-05-04 05:04:00,
2013-05-04 01:06:00,60.5,51.8,29.82,ESE,119,3.3,8.1,73,0.00,,,0.00,WUHU216HW,2013-05-04 05:06:00,
2013-05-04 01:08:00,60.5,51.8,29.82,SE,135,2.2,8.1,73,0.00,,,0.00,WUHU216HW,2013-05-04 05:08:00,
2013-05-04 01:09:00,60.5,51.8,29.81,SE,135,5.1,8.1,73,0.00,,,0.00,WUHU216HW,2013-05-04 05:09:00,
2013-05-04 01:11:00,60.5,51.8,29.81,ESE,113,4.5,6.3,73,0.00,,,0.00,WUHU216HW,2013-05-04 05:11:00,
2013-05-04 01:12:00,60.5,51.8,29.81,ESE,113,4.5,6.3,73,0.00,,,0.00,WUHU216HW,2013-05-04 05:12:00,
2013-05-04 01:13:00,60.5,51.8,29.81,East,83,2.7,5.4,73,0.00,,,0.00,WUHU216HW,2013-05-04 05:13:00,
2013-05-04 01:14:00,60.3,51.7,29.81,North,4,1.1,5.4,73,0.00,,,0.00,WUHU216HW,2013-05-04 05:14:00,
2013-05-04 01:15:00,60.3,51.7,29.81,SSE,158,4.0,5.4,73,0.00,,,0.00,WUHU216HW,2013-05-04 05:15:00,
2013-05-04 01:17:00,60.3,51.7,29.81,SE,135,6.5,6.5,73,0.00,,,0.00,WUHU216HW,2013-05-04 05:17:00,
2013-05-04 01:18:00,60.3,51.7,29.81,SSE,161,5.4,6.5,73,0.00,,,0.00,WUHU216HW,2013-05-04 05:18:00,
2013-05-04 01:19:00,60.3,51.7,29.81,SSW,203,3.7,6.5,73,0.00,,,0.00,WUHU216HW,2013-05-04 05:19:00,
2013-05-04 01:20:00,60.3,51.7,29.81,SSW,203,6.5,6.5,73,0.00,,,0.00,WUHU216HW,2013-05-04 05:20:00,
2013-05-04 01:22:00,60.3,51.7,29.81,South,183,4.7,6.5,73,0.00,,,0.00,WUHU216HW,2013-05-04 05:22:00,
2013-05-04 01:24:00,60.3,51.7,29.81,SSW,203,3.4,6.5,73,0.00,,,0.00,WUHU216HW,2013-05-04 05:24:00,
2013-05-04 01:26:00,60.3,51.7,29.81,SSE,163,4.9,6.5,73,0.00,,,0.00,WUHU216HW,2013-05-04 05:26:00,
2013-05-04 01:27:00,60.3,51.3,29.81,ESE,120,3.5,6.5,72,0.00,,,0.00,WUHU216HW,2013-05-04 05:27:00,
2013-05-04 01:28:00,60.3,51.7,29.81,SE,135,2.5,6.5,73,0.00,,,0.00,WUHU216HW,2013-05-04 05:28:00,
2013-05-04 01:29:00,60.3,51.7,29.81,SSW,203,3.4,6.5,73,0.00,,,0.00,WUHU216HW,2013-05-04 05:29:00,
2013-05-04 01:30:00,60.3,51.7,29.81,South,179,2.7,6.5,73,0.00,,,0.00,WUHU216HW,2013-05-04 05:30:00,
2013-05-04 01:31:00,60.3,51.3,29.81,SSE,156,1.9,5.4,72,0.00,,,0.00,WUHU216HW,2013-05-04 05:31:00,
2013-05-04 01:33:00,60.3,51.3,29.81,SE,135,3.4,5.4,72,0.00,,,0.00,WUHU216HW,2013-05-04 05:33:00,
2013-05-04 01:34:00,60.3,51.7,29.81,SSE,158,3.8,5.4,73,0.00,,,0.00,WUHU216HW,2013-05-04 05:34:00,
2013-05-04 01:36:00,60.3,51.3,29.81,East,99,2.5,3.8,72,0.00,,,0.00,WUHU216HW,2013-05-04 05:36:00,
2013-05-04 01:37:00,60.3,51.3,29.81,SE,135,3.6,3.8,72,0.00,,,0.00,WUHU216HW,2013-05-04 05:37:00,
2013-05-04 01:38:00,60.3,51.3,29.81,SE,135,4.0,4.0,72,0.00,,,0.00,WUHU216HW,2013-05-04 05:38:00,
2013-05-04 01:39:00,60.3,51.3,29.81,ESE,113,4.5,4.5,72,0.00,,,0.00,WUHU216HW,2013-05-04 05:39:00,
2013-05-04 01:41:00,60.3,51.3,29.80,SSE,149,4.8,6.0,72,0.00,,,0.00,WUHU216HW,2013-05-04 05:41:00,
2013-05-04 01:42:00,60.3,51.3,29.80,ESE,113,3.6,6.0,72,0.00,,,0.00,WUHU216HW,2013-05-04 05:42:00,
2013-05-04 01:44:00,60.3,51.3,29.80,SE,133,2.0,6.0,72,0.00,,,0.00,WUHU216HW,2013-05-04 05:44:00,
2013-05-04 01:46:00,60.1,51.1,29.80,SE,135,2.6,6.0,72,0.00,,,0.00,WUHU216HW,2013-05-04 05:46:00,
2013-05-04 01:47:00,60.1,51.1,29.80,SE,135,2.6,6.0,72,0.00,,,0.00,WUHU216HW,2013-05-04 05:47:00,
2013-05-04 01:50:00,60.1,51.1,29.80,ESE,119,2.9,6.0,72,0.00,,,0.00,WUHU216HW,2013-05-04 05:50:00,
2013-05-04 01:52:00,60.1,51.1,29.80,East,80,3.2,4.0,72,0.00,,,0.00,WUHU216HW,2013-05-04 05:52:00,
2013-05-04 01:53:00,60.1,51.5,29.80,ESE,113,4.3,4.3,73,0.00,,,0.00,WUHU216HW,2013-05-04 05:53:00,
2013-05-04 01:55:00,60.1,51.5,29.79,South,180,4.9,4.9,73,0.00,,,0.00,WUHU216HW,2013-05-04 05:55:00,
2013-05-04 01:56:00,60.1,51.1,29.79,ESE,113,5.8,5.8,72,0.00,,,0.00,WUHU216HW,2013-05-04 05:56:00,
2013-05-04 01:57:00,60.1,51.1,29.79,ESE,113,5.8,5.8,72,0.00,,,0.00,WUHU216HW,2013-05-04 05:57:00,
2013-05-04 01:58:00,60.1,51.1,29.79,SSE,152,1.5,5.8,72,0.00,,,0.00,WUHU216HW,2013-05-04 05:58:00,
2013-05-04 01:59:00,60.1,51.1,29.79,SSE,152,1.5,5.8,72,0.00,,,0.00,WUHU216HW,2013-05-04 05:59:00,
2013-05-04 02:01:00,60.1,51.1,29.79,ESE,113,3.6,5.8,72,0.00,,,0.00,WUHU216HW,2013-05-04 06:01:00,
2013-05-04 02:03:00,60.1,51.1,29.79,SSE,158,2.7,5.8,72,0.00,,,0.00,WUHU216HW,2013-05-04 06:03:00,
2013-05-04 02:05:00,60.1,51.1,29.79,SE,135,1.1,5.8,72,0.00,,,0.00,WUHU216HW,2013-05-04 06:05:00,
2013-05-04 02:06:00,60.1,51.1,29.79,SE,135,4.0,5.8,72,0.00,,,0.00,WUHU216HW,2013-05-04 06:06:00,
2013-05-04 02:09:00,60.3,51.3,29.79,SE,125,3.5,4.0,72,0.00,,,0.00,WUHU216HW,2013-05-04 06:09:00,
2013-05-04 02:10:00,60.3,51.3,29.79,SE,135,3.6,4.0,72,0.00,,,0.00,WUHU216HW,2013-05-04 06:10:00,
2013-05-04 02:11:00,60.3,51.3,29.79,SW,225,6.3,6.3,72,0.00,,,0.00,WUHU216HW,2013-05-04 06:11:00,
2013-05-04 02:13:00,60.3,50.9,29.79,East,98,10.0,12.8,71,0.00,,,0.00,WUHU216HW,2013-05-04 06:13:00,
2013-05-04 02:15:00,60.5,51.1,29.78,East,100,9.9,12.8,71,0.00,,,0.00,WUHU216HW,2013-05-04 06:15:00,
2013-05-04 02:16:00,60.5,51.1,29.78,SSE,149,7.1,12.8,71,0.00,,,0.00,WUHU216HW,2013-05-04 06:16:00,
2013-05-04 02:17:00,60.7,51.3,29.78,South,180,9.2,12.8,71,0.00,,,0.00,WUHU216HW,2013-05-04 06:17:00,
2013-05-04 02:18:00,60.7,51.3,29.79,South,170,8.2,12.8,71,0.00,,,0.00,WUHU216HW,2013-05-04 06:18:00,
2013-05-04 02:20:00,60.7,51.3,29.78,SSW,205,6.8,12.8,71,0.00,,,0.00,WUHU216HW,2013-05-04 06:20:00,
2013-05-04 02:21:00,60.7,51.3,29.78,East,90,8.1,12.8,71,0.00,,,0.00,WUHU216HW,2013-05-04 06:21:00,
2013-05-04 02:22:00,60.7,51.3,29.78,ESE,108,5.8,10.1,71,0.00,,,0.00,WUHU216HW,2013-05-04 06:22:00,
2013-05-04 02:24:00,60.7,51.3,29.79,SSE,150,3.7,9.6,71,0.00,,,0.00,WUHU216HW,2013-05-04 06:24:00,
2013-05-04 02:26:00,60.7,51.3,29.78,SE,135,5.8,9.2,71,0.00,,,0.00,WUHU216HW,2013-05-04 06:26:00,
2013-05-04 02:27:00,60.7,50.9,29.78,ENE,68,13.4,13.4,70,0.00,,,0.00,WUHU216HW,2013-05-04 06:27:00,
2013-05-04 02:28:00,60.7,50.9,29.79,East,96,11.9,13.4,70,0.00,,,0.00,WUHU216HW,2013-05-04 06:28:00,
2013-05-04 02:29:00,60.7,50.9,29.78,East,90,11.4,13.4,70,0.00,,,0.00,WUHU216HW,2013-05-04 06:29:00,
2013-05-04 02:32:00,60.8,51.1,29.78,SE,126,8.9,13.4,70,0.00,,,0.00,WUHU216HW,2013-05-04 06:32:00,
2013-05-04 02:33:00,60.8,51.1,29.78,ESE,108,5.5,13.4,70,0.00,,,0.00,WUHU216HW,2013-05-04 06:33:00,
2013-05-04 02:34:00,60.8,51.1,29.78,South,180,2.5,13.4,70,0.00,,,0.00,WUHU216HW,2013-05-04 06:34:00,
2013-05-04 02:35:00,60.8,51.1,29.78,ESE,113,5.4,13.4,70,0.00,,,0.00,WUHU216HW,2013-05-04 06:35:00,
2013-05-04 02:37:00,60.8,51.1,29.78,WNW,293,6.3,11.4,70,0.00,,,0.00,WUHU216HW,2013-05-04 06:37:00,
2013-05-04 02:40:00,60.8,51.1,29.77,SE,135,8.7,9.4,70,0.00,,,0.00,WUHU216HW,2013-05-04 06:40:00,
2013-05-04 02:41:00,60.8,51.1,29.77,SE,135,8.5,8.7,70,0.00,,,0.00,WUHU216HW,2013-05-04 06:41:00,
2013-05-04 02:44:00,60.8,51.1,29.77,ESE,113,5.8,8.7,70,0.00,,,0.00,WUHU216HW,2013-05-04 06:44:00,
2013-05-04 02:45:00,60.8,51.1,29.77,SE,135,10.3,10.3,70,0.00,,,0.00,WUHU216HW,2013-05-04 06:45:00,
2013-05-04 02:47:00,60.8,51.1,29.77,SE,135,6.3,10.3,70,0.00,,,0.00,WUHU216HW,2013-05-04 06:47:00,
2013-05-04 02:49:00,60.8,51.1,29.77,East,90,8.9,10.3,70,0.00,,,0.00,WUHU216HW,2013-05-04 06:49:00,
2013-05-04 02:50:00,60.8,51.1,29.77,East,94,6.8,11.0,70,0.00,,,0.00,WUHU216HW,2013-05-04 06:50:00,
2013-05-04 02:51:00,60.8,51.1,29.77,East,94,6.8,11.0,70,0.00,,,0.00,WUHU216HW,2013-05-04 06:51:00,
2013-05-04 02:52:00,60.8,51.1,29.77,SE,135,7.2,11.0,70,0.00,,,0.00,WUHU216HW,2013-05-04 06:52:00,
2013-05-04 02:54:00,60.8,50.7,29.77,ESE,123,9.5,11.0,69,0.00,,,0.00,WUHU216HW,2013-05-04 06:54:00,
2013-05-04 02:55:00,60.8,50.7,29.77,SE,135,8.9,11.0,69,0.00,,,0.00,WUHU216HW,2013-05-04 06:55:00,
2013-05-04 02:57:00,60.8,50.7,29.77,South,180,9.8,11.0,69,0.00,,,0.00,WUHU216HW,2013-05-04 06:57:00,
2013-05-04 02:59:00,60.8,50.7,29.77,ESE,113,12.8,12.8,69,0.00,,,0.00,WUHU216HW,2013-05-04 06:59:00,
2013-05-04 03:01:00,60.8,50.3,29.77,North,0,11.4,12.8,68,0.00,,,0.00,WUHU216HW,2013-05-04 07:01:00,
2013-05-04 03:02:00,60.8,50.3,29.76,NNE,33,8.9,12.8,68,0.00,,,0.00,WUHU216HW,2013-05-04 07:02:00,
2013-05-04 03:04:00,60.8,50.3,29.77,ESE,113,13.4,13.4,68,0.00,,,0.00,WUHU216HW,2013-05-04 07:04:00,
2013-05-04 03:07:00,61.0,50.5,29.76,South,171,4.6,13.4,68,0.00,,,0.00,WUHU216HW,2013-05-04 07:07:00,
2013-05-04 03:09:00,61.0,50.5,29.76,ESE,108,4.2,13.4,68,0.00,,,0.00,WUHU216HW,2013-05-04 07:09:00,
2013-05-04 03:10:00,60.8,50.3,29.76,South,180,6.3,13.4,68,0.00,,,0.00,WUHU216HW,2013-05-04 07:10:00,
2013-05-04 03:13:00,60.8,50.3,29.76,East,90,15.7,15.7,68,0.00,,,0.00,WUHU216HW,2013-05-04 07:13:00,
2013-05-04 03:14:00,60.8,50.3,29.76,ESE,117,13.4,15.7,68,0.00,,,0.00,WUHU216HW,2013-05-04 07:14:00,
2013-05-04 03:15:00,60.8,50.3,29.76,SSE,149,8.6,15.7,68,0.00,,,0.00,WUHU216HW,2013-05-04 07:15:00,
2013-05-04 03:16:00,60.8,50.3,29.76,SSW,203,7.6,15.7,68,0.00,,,0.00,WUHU216HW,2013-05-04 07:16:00,
2013-05-04 03:20:00,60.8,50.7,29.76,ESE,113,4.0,15.7,69,0.00,,,0.00,WUHU216HW,2013-05-04 07:20:00,
2013-05-04 03:22:00,60.7,50.1,29.76,East,90,10.7,15.7,68,0.00,,,0.00,WUHU216HW,2013-05-04 07:22:00,
2013-05-04 03:25:00,60.5,50.3,29.76,SE,135,6.5,10.7,69,0.00,,,0.00,WUHU216HW,2013-05-04 07:25:00,
2013-05-04 03:26:00,60.5,50.3,29.76,ESE,115,5.8,10.7,69,0.00,,,0.00,WUHU216HW,2013-05-04 07:26:00,
2013-05-04 03:27:00,60.5,50.3,29.75,ESE,113,6.9,10.7,69,0.00,,,0.00,WUHU216HW,2013-05-04 07:27:00,
2013-05-04 03:31:00,60.5,50.0,29.75,SE,135,20.6,20.6,68,0.00,,,0.00,WUHU216HW,2013-05-04 07:31:00,
2013-05-04 03:32:00,60.5,50.0,29.75,SSE,151,16.1,20.6,68,0.00,,,0.00,WUHU216HW,2013-05-04 07:32:00,
2013-05-04 03:33:00,60.5,50.0,29.75,SSE,149,11.0,20.6,68,0.00,,,0.00,WUHU216HW,2013-05-04 07:33:00,
2013-05-04 03:37:00,60.7,49.7,29.75,SE,131,10.9,20.6,67,0.00,,,0.00,WUHU216HW,2013-05-04 07:37:00,
2013-05-04 03:38:00,60.7,49.7,29.76,SE,135,13.4,20.6,67,0.00,,,0.00,WUHU216HW,2013-05-04 07:38:00,
2013-05-04 03:42:00,60.7,49.7,29.75,ESE,122,5.6,15.0,67,0.00,,,0.00,WUHU216HW,2013-05-04 07:42:00,
2013-05-04 03:43:00,60.7,49.7,29.75,ESE,113,4.9,15.0,67,0.00,,,0.00,WUHU216HW,2013-05-04 07:43:00,
2013-05-04 03:44:00,60.7,49.7,29.75,ESE,113,4.9,15.0,67,0.00,,,0.00,WUHU216HW,2013-05-04 07:44:00,
2013-05-04 03:47:00,60.7,49.7,29.75,ESE,113,10.3,15.0,67,0.00,,,0.00,WUHU216HW,2013-05-04 07:47:00,
2013-05-04 03:48:00,60.7,49.7,29.75,ESE,113,9.9,15.0,67,0.00,,,0.00,WUHU216HW,2013-05-04 07:48:00,
2013-05-04 03:49:00,60.7,49.7,29.75,ESE,113,9.9,15.0,67,0.00,,,0.00,WUHU216HW,2013-05-04 07:49:00,
2013-05-04 03:50:00,60.7,49.7,29.75,ESE,113,7.8,10.3,67,0.00,,,0.00,WUHU216HW,2013-05-04 07:50:00,
2013-05-04 03:51:00,60.7,49.7,29.75,SSE,158,5.6,10.3,67,0.00,,,0.00,WUHU216HW,2013-05-04 07:51:00,
2013-05-04 03:52:00,60.7,49.7,29.75,SE,126,5.3,10.3,67,0.00,,,0.00,WUHU216HW,2013-05-04 07:52:00,
2013-05-04 03:53:00,60.7,50.1,29.75,East,100,4.7,10.3,68,0.00,,,0.00,WUHU216HW,2013-05-04 07:53:00,
2013-05-04 03:54:00,60.7,50.1,29.75,East,100,4.7,10.3,68,0.00,,,0.00,WUHU216HW,2013-05-04 07:54:00,
2013-05-04 03:55:00,60.5,50.0,29.75,SSE,165,9.5,10.5,68,0.00,,,0.00,WUHU216HW,2013-05-04 07:55:00,
2013-05-04 03:57:00,60.5,50.0,29.75,ESE,113,8.9,10.5,68,0.00,,,0.00,WUHU216HW,2013-05-04 07:57:00,
2013-05-04 03:59:00,60.5,50.0,29.75,SE,135,8.5,10.5,68,0.00,,,0.00,WUHU216HW,2013-05-04 07:59:00,
2013-05-04 04:00:00,60.5,50.0,29.75,SE,135,8.5,10.5,68,0.00,,,0.00,WUHU216HW,2013-05-04 08:00:00,
2013-05-04 04:01:00,60.5,50.0,29.75,SE,135,8.1,10.5,68,0.00,,,0.00,WUHU216HW,2013-05-04 08:01:00,
2013-05-04 04:02:00,60.5,50.0,29.75,South,187,7.3,10.5,68,0.00,,,0.00,WUHU216HW,2013-05-04 08:02:00,
2013-05-04 04:03:00,60.5,50.0,29.75,SSW,207,5.8,10.5,68,0.00,,,0.00,WUHU216HW,2013-05-04 08:03:00,
2013-05-04 04:05:00,60.5,50.0,29.75,ESE,113,4.4,8.9,68,0.00,,,0.00,WUHU216HW,2013-05-04 08:05:00,
2013-05-04 04:06:00,60.5,50.0,29.75,ESE,113,11.6,11.6,68,0.00,,,0.00,WUHU216HW,2013-05-04 08:06:00,
2013-05-04 04:08:00,60.5,50.0,29.75,ESE,113,14.1,14.1,68,0.00,,,0.00,WUHU216HW,2013-05-04 08:08:00,
2013-05-04 04:10:00,60.3,49.8,29.75,ESE,113,6.9,14.1,68,0.00,,,0.00,WUHU216HW,2013-05-04 08:10:00,
2013-05-04 04:11:00,60.3,49.8,29.75,SE,132,4.7,14.1,68,0.00,,,0.00,WUHU216HW,2013-05-04 08:11:00,
2013-05-04 04:13:00,60.3,49.8,29.76,SSE,155,10.2,14.1,68,0.00,,,0.00,WUHU216HW,2013-05-04 08:13:00,
2013-05-04 04:15:00,60.3,49.8,29.75,SE,135,9.2,14.1,68,0.00,,,0.00,WUHU216HW,2013-05-04 08:15:00,
2013-05-04 04:17:00,60.3,50.1,29.75,NE,45,4.3,14.1,69,0.00,,,0.00,WUHU216HW,2013-05-04 08:17:00,
2013-05-04 04:19:00,60.3,50.1,29.75,ESE,113,11.6,11.6,69,0.00,,,0.00,WUHU216HW,2013-05-04 08:19:00,
2013-05-04 04:20:00,60.3,49.8,29.75,ESE,113,8.8,11.6,68,0.00,,,0.00,WUHU216HW,2013-05-04 08:20:00,
2013-05-04 04:22:00,60.3,49.8,29.75,SE,135,10.1,11.6,68,0.00,,,0.00,WUHU216HW,2013-05-04 08:22:00,
2013-05-04 04:23:00,60.3,50.1,29.75,SE,143,7.8,11.6,69,0.00,,,0.00,WUHU216HW,2013-05-04 08:23:00,
2013-05-04 04:24:00,60.3,50.1,29.75,ESE,113,9.8,11.6,69,0.00,,,0.00,WUHU216HW,2013-05-04 08:24:00,
2013-05-04 04:27:00,60.3,50.1,29.76,SSE,151,9.5,11.6,69,0.00,,,0.00,WUHU216HW,2013-05-04 08:27:00,
2013-05-04 04:28:00,60.3,50.1,29.75,NE,45,5.4,11.6,69,0.00,,,0.00,WUHU216HW,2013-05-04 08:28:00,
2013-05-04 04:29:00,60.1,50.0,29.75,South,171,3.1,10.5,69,0.00,,,0.00,WUHU216HW,2013-05-04 08:29:00,
2013-05-04 04:33:00,60.1,50.0,29.75,ESE,120,7.9,10.5,69,0.00,,,0.00,WUHU216HW,2013-05-04 08:33:00,
2013-05-04 04:34:00,60.1,50.0,29.75,SE,135,5.5,10.5,69,0.00,,,0.00,WUHU216HW,2013-05-04 08:34:00,
2013-05-04 04:36:00,59.9,50.2,29.75,SSE,158,8.9,10.1,70,0.00,,,0.00,WUHU216HW,2013-05-04 08:36:00,
2013-05-04 04:39:00,59.8,50.0,29.75,East,99,6.3,10.1,70,0.00,,,0.00,WUHU216HW,2013-05-04 08:39:00,
2013-05-04 04:40:00,59.6,49.9,29.75,ESE,113,4.3,10.1,70,0.00,,,0.00,WUHU216HW,2013-05-04 08:40:00,
2013-05-04 04:41:00,59.6,50.2,29.75,ESE,113,3.1,10.1,71,0.00,,,0.00,WUHU216HW,2013-05-04 08:41:00,
2013-05-04 04:45:00,59.4,50.0,29.75,ESE,104,4.8,9.6,71,0.00,,,0.00,WUHU216HW,2013-05-04 08:45:00,
2013-05-04 04:46:00,59.4,50.4,29.75,ESE,123,3.5,9.6,72,0.00,,,0.00,WUHU216HW,2013-05-04 08:46:00,
2013-05-04 04:50:00,58.9,50.2,29.76,SE,126,7.5,8.7,73,0.00,,,0.00,WUHU216HW,2013-05-04 08:50:00,
2013-05-04 04:51:00,58.7,50.0,29.75,SE,135,12.3,12.3,73,0.00,,,0.00,WUHU216HW,2013-05-04 08:51:00,
2013-05-04 04:52:00,58.7,50.0,29.75,SE,135,12.3,12.3,73,0.00,,,0.00,WUHU216HW,2013-05-04 08:52:00,
2013-05-04 04:56:00,58.1,50.2,29.76,SSE,158,9.2,12.3,75,0.01,,,0.01,WUHU216HW,2013-05-04 08:56:00,
2013-05-04 04:57:00,58.1,50.2,29.76,SSE,158,9.2,12.3,75,0.01,,,0.01,WUHU216HW,2013-05-04 08:57:00,
2013-05-04 04:58:00,57.8,49.9,29.76,ESE,113,9.2,12.3,75,0.01,,,0.01,WUHU216HW,2013-05-04 08:58:00,
2013-05-04 05:02:00,57.4,49.9,29.76,ESE,113,8.9,9.8,76,0.01,,,0.01,WUHU216HW,2013-05-04 09:02:00,
2013-05-04 05:03:00,57.4,50.2,29.75,ESE,109,7.7,9.8,77,0.02,,,0.02,WUHU216HW,2013-05-04 09:03:00,
2013-05-04 05:04:00,57.2,50.0,29.75,SE,135,5.1,9.2,77,0.02,,,0.02,WUHU216HW,2013-05-04 09:04:00,
2013-05-04 05:05:00,57.1,49.9,29.75,SE,135,4.7,9.2,77,0.02,,,0.02,WUHU216HW,2013-05-04 09:05:00,
2013-05-04 05:07:00,56.9,50.0,29.76,East,97,9.1,12.8,78,0.02,,,0.02,WUHU216HW,2013-05-04 09:07:00,
2013-05-04 05:08:00,56.9,50.0,29.76,ESE,113,10.7,12.8,78,0.02,,,0.02,WUHU216HW,2013-05-04 09:08:00,
2013-05-04 05:09:00,56.7,50.2,29.75,ESE,108,5.8,12.8,79,0.02,,,0.02,WUHU216HW,2013-05-04 09:09:00,
2013-05-04 05:11:00,56.5,50.0,29.75,ESE,113,5.4,12.8,79,0.03,,,0.03,WUHU216HW,2013-05-04 09:11:00,
2013-05-04 05:12:00,56.5,50.0,29.75,ENE,68,14.3,14.3,79,0.03,,,0.03,WUHU216HW,2013-05-04 09:12:00,
2013-05-04 05:13:00,56.5,50.4,29.75,East,85,10.1,14.3,80,0.03,,,0.03,WUHU216HW,2013-05-04 09:13:00,
2013-05-04 05:15:00,56.3,50.2,29.75,SE,132,7.6,14.3,80,0.03,,,0.03,WUHU216HW,2013-05-04 09:15:00,
2013-05-04 05:16:00,56.2,50.4,29.75,SE,124,8.6,14.3,81,0.04,,,0.04,WUHU216HW,2013-05-04 09:16:00,
2013-05-04 05:18:00,56.2,50.4,29.75,East,91,5.8,14.3,81,0.04,,,0.04,WUHU216HW,2013-05-04 09:18:00,
2013-05-04 05:19:00,56.0,50.2,29.75,NE,45,2.7,14.3,81,0.04,,,0.04,WUHU216HW,2013-05-04 09:19:00,
2013-05-04 05:20:00,56.0,50.2,29.75,ENE,68,4.0,14.3,81,0.04,,,0.04,WUHU216HW,2013-05-04 09:20:00,
2013-05-04 05:21:00,55.8,50.1,29.74,ESE,113,6.3,14.3,81,0.04,,,0.04,WUHU216HW,2013-05-04 09:21:00,
2013-05-04 05:22:00,55.8,50.1,29.75,ESE,102,6.1,8.7,81,0.04,,,0.04,WUHU216HW,2013-05-04 09:22:00,
2013-05-04 05:24:00,55.8,50.1,29.75,East,90,4.9,8.7,81,0.04,,,0.04,WUHU216HW,2013-05-04 09:24:00,
2013-05-04 05:25:00,55.6,49.9,29.75,SE,135,10.5,10.5,81,0.04,,,0.04,WUHU216HW,2013-05-04 09:25:00,
2013-05-04 05:27:00,55.6,49.9,29.75,SE,135,7.1,10.5,81,0.04,,,0.04,WUHU216HW,2013-05-04 09:27:00,
2013-05-04 05:29:00,55.6,49.9,29.75,SE,135,13.2,13.2,81,0.04,,,0.04,WUHU216HW,2013-05-04 09:29:00,
2013-05-04 05:31:00,55.6,49.9,29.75,ESE,113,8.5,13.2,81,0.04,,,0.04,WUHU216HW,2013-05-04 09:31:00,
2013-05-04 05:33:00,55.4,49.7,29.75,SSE,161,4.1,13.2,81,0.04,,,0.04,WUHU216HW,2013-05-04 09:33:00,
2013-05-04 05:35:00,55.4,49.7,29.75,East,87,4.5,13.2,81,0.04,,,0.04,WUHU216HW,2013-05-04 09:35:00,
2013-05-04 05:36:00,55.4,49.7,29.75,ESE,113,8.5,13.2,81,0.04,,,0.04,WUHU216HW,2013-05-04 09:36:00,
2013-05-04 05:37:00,55.4,49.7,29.75,ESE,113,8.5,13.2,81,0.04,,,0.04,WUHU216HW,2013-05-04 09:37:00,
2013-05-04 05:38:00,55.4,49.7,29.76,East,90,6.9,11.2,81,0.04,,,0.04,WUHU216HW,2013-05-04 09:38:00,
2013-05-04 05:39:00,55.4,49.7,29.76,East,90,6.9,11.2,81,0.04,,,0.04,WUHU216HW,2013-05-04 09:39:00,
2013-05-04 05:41:00,55.4,49.7,29.76,ESE,112,4.9,11.2,81,0.04,,,0.04,WUHU216HW,2013-05-04 09:41:00,
2013-05-04 05:42:00,55.4,49.7,29.76,SSE,147,3.2,11.2,81,0.04,,,0.04,WUHU216HW,2013-05-04 09:42:00,
2013-05-04 05:44:00,55.3,49.5,29.76,SE,135,7.4,11.2,81,0.05,,,0.05,WUHU216HW,2013-05-04 09:44:00,
2013-05-04 05:45:00,55.3,49.5,29.76,SE,135,7.4,11.2,81,0.05,,,0.05,WUHU216HW,2013-05-04 09:45:00,
2013-05-04 05:46:00,55.3,49.1,29.76,NE,44,9.1,13.2,80,0.05,,,0.05,WUHU216HW,2013-05-04 09:46:00,
2013-05-04 05:47:00,55.3,49.1,29.76,NE,44,9.1,13.2,80,0.05,,,0.05,WUHU216HW,2013-05-04 09:47:00,
2013-05-04 05:50:00,55.3,48.8,29.76,East,83,6.1,13.2,79,0.05,,,0.05,WUHU216HW,2013-05-04 09:50:00,
2013-05-04 05:52:00,55.3,48.8,29.76,ESE,113,8.9,13.2,79,0.05,,,0.05,WUHU216HW,2013-05-04 09:52:00,
2013-05-04 05:53:00,55.1,49.0,29.76,ESE,113,8.1,13.2,80,0.05,,,0.05,WUHU216HW,2013-05-04 09:53:00,
2013-05-04 05:55:00,55.1,49.0,29.77,SSW,198,3.3,8.9,80,0.04,,,0.05,WUHU216HW,2013-05-04 09:55:00,
2013-05-04 05:57:00,55.1,49.0,29.77,SSW,202,3.3,8.9,80,0.04,,,0.05,WUHU216HW,2013-05-04 09:57:00,
2013-05-04 05:58:00,55.1,49.0,29.77,SSW,202,3.3,8.9,80,0.04,,,0.05,WUHU216HW,2013-05-04 09:58:00,
2013-05-04 05:59:00,55.1,49.0,29.77,ESE,113,8.5,8.9,80,0.04,,,0.05,WUHU216HW,2013-05-04 09:59:00,
2013-05-04 06:02:00,54.9,48.9,29.77,South,183,3.6,8.9,80,0.03,,,0.05,WUHU216HW,2013-05-04 10:02:00,
2013-05-04 06:04:00,54.9,48.9,29.77,SSE,158,5.4,8.5,80,0.04,,,0.06,WUHU216HW,2013-05-04 10:04:00,
2013-05-04 06:05:00,54.7,49.0,29.77,South,173,4.2,8.5,81,0.04,,,0.06,WUHU216HW,2013-05-04 10:05:00,
2013-05-04 06:09:00,54.7,49.0,29.77,SE,135,3.8,8.5,81,0.03,,,0.06,WUHU216HW,2013-05-04 10:09:00,
2013-05-04 06:10:00,54.7,49.0,29.77,ESE,120,2.5,7.8,81,0.03,,,0.06,WUHU216HW,2013-05-04 10:10:00,
2013-05-04 06:11:00,54.7,49.0,29.77,SSE,158,5.1,7.8,81,0.03,,,0.06,WUHU216HW,2013-05-04 10:11:00,
2013-05-04 06:14:00,54.5,48.9,29.77,SSE,165,3.6,7.8,81,0.03,,,0.06,WUHU216HW,2013-05-04 10:14:00,
2013-05-04 06:16:00,54.5,48.9,29.78,ESE,113,7.8,7.8,81,0.02,,,0.06,WUHU216HW,2013-05-04 10:16:00,
2013-05-04 06:17:00,54.5,48.9,29.77,ESE,121,6.2,7.8,81,0.02,,,0.06,WUHU216HW,2013-05-04 10:17:00,
2013-05-04 06:19:00,54.4,49.0,29.77,SSE,158,5.4,7.8,82,0.02,,,0.06,WUHU216HW,2013-05-04 10:19:00,
2013-05-04 06:20:00,54.4,48.7,29.78,SE,135,12.1,12.1,81,0.02,,,0.06,WUHU216HW,2013-05-04 10:20:00,
2013-05-04 06:21:00,54.4,48.7,29.78,SE,135,10.8,12.1,81,0.03,,,0.07,WUHU216HW,2013-05-04 10:21:00,
2013-05-04 06:23:00,54.4,48.7,29.78,SSE,158,8.1,12.1,81,0.03,,,0.07,WUHU216HW,2013-05-04 10:23:00,
2013-05-04 06:25:00,54.4,48.7,29.78,South,171,5.2,12.1,81,0.03,,,0.07,WUHU216HW,2013-05-04 10:25:00,
2013-05-04 06:26:00,54.4,48.7,29.79,SSW,200,4.2,12.1,81,0.03,,,0.07,WUHU216HW,2013-05-04 10:26:00,
2013-05-04 06:27:00,54.4,48.7,29.79,SE,135,10.5,12.1,81,0.03,,,0.07,WUHU216HW,2013-05-04 10:27:00,
2013-05-04 06:28:00,54.2,48.5,29.79,SE,135,9.4,12.1,81,0.03,,,0.07,WUHU216HW,2013-05-04 10:28:00,
2013-05-04 06:30:00,54.2,48.5,29.79,South,180,4.7,10.5,81,0.03,,,0.07,WUHU216HW,2013-05-04 10:30:00,
2013-05-04 06:32:00,54.2,48.8,29.79,SW,225,3.4,10.5,82,0.03,,,0.07,WUHU216HW,2013-05-04 10:32:00,
2013-05-04 06:33:00,54.2,48.8,29.79,SW,225,3.4,10.5,82,0.03,,,0.07,WUHU216HW,2013-05-04 10:33:00,
2013-05-04 06:34:00,54.0,48.6,29.79,SE,135,5.4,10.5,82,0.03,,,0.07,WUHU216HW,2013-05-04 10:34:00,
2013-05-04 06:37:00,54.0,48.6,29.80,SW,225,3.4,8.3,82,0.04,,,0.08,WUHU216HW,2013-05-04 10:37:00,
2013-05-04 06:38:00,54.0,48.6,29.80,SSW,203,3.4,5.4,82,0.04,,,0.08,WUHU216HW,2013-05-04 10:38:00,
2013-05-04 06:40:00,53.8,48.5,29.80,SSW,203,4.3,5.4,82,0.04,,,0.08,WUHU216HW,2013-05-04 10:40:00,
2013-05-04 06:42:00,53.8,48.5,29.79,SSE,158,8.9,8.9,82,0.04,,,0.08,WUHU216HW,2013-05-04 10:42:00,
2013-05-04 06:43:00,53.6,48.3,29.79,SE,135,6.3,8.9,82,0.03,,,0.08,WUHU216HW,2013-05-04 10:43:00,
2013-05-04 06:46:00,53.5,48.2,29.79,SE,139,2.3,8.9,82,0.04,,,0.09,WUHU216HW,2013-05-04 10:46:00,
2013-05-04 06:47:00,53.5,48.2,29.79,WSW,248,2.5,8.9,82,0.04,,,0.09,WUHU216HW,2013-05-04 10:47:00,
2013-05-04 06:48:00,53.5,48.2,29.79,WSW,248,2.5,8.9,82,0.04,,,0.09,WUHU216HW,2013-05-04 10:48:00,
2013-05-04 06:49:00,53.3,48.0,29.79,ESE,113,2.9,8.9,82,0.04,,,0.09,WUHU216HW,2013-05-04 10:49:00,
2013-05-04 06:51:00,53.3,48.0,29.79,SE,135,1.1,6.3,82,0.04,,,0.09,WUHU216HW,2013-05-04 10:51:00,
2013-05-04 06:52:00,53.3,48.0,29.79,South,180,5.4,6.3,82,0.04,,,0.09,WUHU216HW,2013-05-04 10:52:00,
2013-05-04 06:53:00,53.3,48.0,29.79,South,184,3.3,5.8,82,0.05,,,0.10,WUHU216HW,2013-05-04 10:53:00,
2013-05-04 06:55:00,53.1,47.8,29.79,SE,135,4.7,5.4,82,0.05,,,0.10,WUHU216HW,2013-05-04 10:55:00,
2013-05-04 06:57:00,53.1,48.1,29.79,SE,130,3.2,5.4,83,0.06,,,0.11,WUHU216HW,2013-05-04 10:57:00,
2013-05-04 06:58:00,52.9,47.9,29.79,ESE,113,2.7,5.4,83,0.06,,,0.11,WUHU216HW,2013-05-04 10:58:00,
2013-05-04 06:59:00,52.9,47.9,29.79,ESE,113,2.7,5.4,83,0.06,,,0.11,WUHU216HW,2013-05-04 10:59:00,
2013-05-04 07:01:00,52.9,47.9,29.79,SSE,148,0.8,4.7,83,0.05,,,0.11,WUHU216HW,2013-05-04 11:01:00,
2013-05-04 07:02:00,52.9,47.9,29.79,SE,135,0.6,4.7,83,0.05,,,0.11,WUHU216HW,2013-05-04 11:02:00,
2013-05-04 07:04:00,52.7,47.7,29.79,SSE,158,1.1,4.7,83,0.05,,,0.11,WUHU216HW,2013-05-04 11:04:00,
2013-05-04 07:05:00,52.7,47.7,29.79,SSE,158,1.1,4.7,83,0.05,,,0.11,WUHU216HW,2013-05-04 11:05:00,
2013-05-04 07:08:00,52.7,48.3,29.79,South,180,1.6,2.2,85,0.06,,,0.12,WUHU216HW,2013-05-04 11:08:00,
2013-05-04 07:09:00,52.7,48.1,29.79,SSE,162,1.4,2.2,84,0.06,,,0.12,WUHU216HW,2013-05-04 11:09:00,
2013-05-04 07:10:00,52.6,47.9,29.79,SSE,158,4.7,4.7,84,0.06,,,0.12,WUHU216HW,2013-05-04 11:10:00,
2013-05-04 07:11:00,52.7,48.1,29.79,SSE,149,3.7,4.7,84,0.06,,,0.12,WUHU216HW,2013-05-04 11:11:00,
2013-05-04 07:14:00,52.6,48.2,29.78,SSE,156,3.5,5.1,85,0.06,,,0.12,WUHU216HW,2013-05-04 11:14:00,
2013-05-04 07:16:00,52.6,48.2,29.78,SE,135,6.5,6.5,85,0.06,,,0.12,WUHU216HW,2013-05-04 11:16:00,
2013-05-04 07:18:00,52.6,48.2,29.78,ESE,113,5.3,8.7,85,0.06,,,0.12,WUHU216HW,2013-05-04 11:18:00,
2013-05-04 07:19:00,52.6,48.2,29.78,ESE,113,1.9,8.7,85,0.06,,,0.12,WUHU216HW,2013-05-04 11:19:00,
2013-05-04 07:21:00,52.6,48.2,29.78,ESE,113,6.9,8.7,85,0.05,,,0.12,WUHU216HW,2013-05-04 11:21:00,
2013-05-04 07:23:00,52.6,48.2,29.78,SSE,159,8.3,8.7,85,0.05,,,0.12,WUHU216HW,2013-05-04 11:23:00,
2013-05-04 07:24:00,52.4,48.2,29.77,SE,126,6.0,8.7,86,0.05,,,0.12,WUHU216HW,2013-05-04 11:24:00,
2013-05-04 07:25:00,52.6,48.4,29.77,SE,136,3.7,8.7,86,0.05,,,0.12,WUHU216HW,2013-05-04 11:25:00,
2013-05-04 07:26:00,52.6,48.2,29.77,SE,137,2.9,8.7,85,0.05,,,0.12,WUHU216HW,2013-05-04 11:26:00,
2013-05-04 07:28:00,52.4,48.0,29.76,ESE,113,6.9,8.5,85,0.05,,,0.12,WUHU216HW,2013-05-04 11:28:00,
2013-05-04 07:31:00,52.4,48.0,29.77,East,90,7.2,8.5,85,0.05,,,0.12,WUHU216HW,2013-05-04 11:31:00,
2013-05-04 07:33:00,52.4,48.2,29.77,ESE,113,6.9,7.2,86,0.05,,,0.12,WUHU216HW,2013-05-04 11:33:00,
2013-05-04 07:34:00,52.4,48.2,29.77,SE,124,4.7,7.2,86,0.05,,,0.12,WUHU216HW,2013-05-04 11:34:00,
2013-05-04 07:36:00,52.4,48.0,29.77,ESE,113,6.9,7.2,85,0.04,,,0.12,WUHU216HW,2013-05-04 11:36:00,
2013-05-04 07:39:00,52.4,48.2,29.77,South,180,9.3,10.1,86,0.04,,,0.12,WUHU216HW,2013-05-04 11:39:00,
2013-05-04 07:40:00,52.4,48.2,29.77,SSE,160,7.7,10.1,86,0.04,,,0.12,WUHU216HW,2013-05-04 11:40:00,
2013-05-04 07:41:00,52.4,48.2,29.77,SE,144,5.9,10.1,86,0.04,,,0.12,WUHU216HW,2013-05-04 11:41:00,
2013-05-04 07:43:00,52.2,48.1,29.78,SE,135,6.6,10.1,86,0.04,,,0.12,WUHU216HW,2013-05-04 11:43:00,
2013-05-04 07:44:00,52.2,48.1,29.78,SE,135,6.6,10.1,86,0.04,,,0.12,WUHU216HW,2013-05-04 11:44:00,
2013-05-04 07:45:00,52.2,48.1,29.78,SE,144,5.2,10.1,86,0.04,,,0.12,WUHU216HW,2013-05-04 11:45:00,
2013-05-04 07:46:00,52.4,48.2,29.78,SSE,153,3.8,10.1,86,0.04,,,0.13,WUHU216HW,2013-05-04 11:46:00,
2013-05-04 07:49:00,52.2,48.1,29.78,South,169,4.3,6.9,86,0.04,,,0.13,WUHU216HW,2013-05-04 11:49:00,
2013-05-04 07:50:00,52.2,48.1,29.78,ESE,113,6.3,6.9,86,0.04,,,0.13,WUHU216HW,2013-05-04 11:50:00,
2013-05-04 07:51:00,52.2,48.1,29.78,SE,133,5.9,6.9,86,0.03,,,0.13,WUHU216HW,2013-05-04 11:51:00,
2013-05-04 07:52:00,52.2,48.1,29.78,SSE,150,4.0,6.9,86,0.03,,,0.13,WUHU216HW,2013-05-04 11:52:00,
2013-05-04 07:55:00,52.2,48.1,29.78,SSE,158,4.0,6.9,86,0.03,,,0.13,WUHU216HW,2013-05-04 11:55:00,
2013-05-04 07:56:00,52.2,48.1,29.78,SE,135,4.0,6.9,86,0.02,,,0.13,WUHU216HW,2013-05-04 11:56:00,
2013-05-04 07:57:00,52.2,48.1,29.78,ESE,113,4.7,6.3,86,0.02,,,0.13,WUHU216HW,2013-05-04 11:57:00,
2013-05-04 08:00:00,52.0,47.9,29.78,SE,140,6.1,8.3,86,0.02,,,0.13,WUHU216HW,2013-05-04 12:00:00,
2013-05-04 08:02:00,52.0,47.9,29.78,ESE,122,3.2,8.3,86,0.02,,,0.13,WUHU216HW,2013-05-04 12:02:00,
2013-05-04 08:03:00,52.0,48.3,29.78,SSE,158,4.3,8.3,87,0.02,,,0.13,WUHU216HW,2013-05-04 12:03:00,
2013-05-04 08:04:00,52.0,47.9,29.78,SSW,203,5.4,8.3,86,0.01,,,0.13,WUHU216HW,2013-05-04 12:04:00,
2013-05-04 08:06:00,52.0,47.9,29.78,South,170,4.4,8.3,86,0.01,,,0.13,WUHU216HW,2013-05-04 12:06:00,
2013-05-04 08:07:00,52.0,47.9,29.78,SE,135,5.8,8.3,86,0.01,,,0.13,WUHU216HW,2013-05-04 12:07:00,
2013-05-04 08:08:00,52.0,47.9,29.78,SE,135,4.6,8.3,86,0.01,,,0.13,WUHU216HW,2013-05-04 12:08:00,
2013-05-04 08:10:00,52.0,47.9,29.78,ESE,113,6.5,6.5,86,0.02,,,0.14,WUHU216HW,2013-05-04 12:10:00,
2013-05-04 08:11:00,52.0,47.9,29.78,SSE,157,6.4,6.5,86,0.02,,,0.14,WUHU216HW,2013-05-04 12:11:00,
2013-05-04 08:12:00,52.0,47.9,29.77,South,180,4.9,6.5,86,0.02,,,0.14,WUHU216HW,2013-05-04 12:12:00,
2013-05-04 08:13:00,52.0,47.9,29.77,ESE,118,2.8,6.5,86,0.02,,,0.14,WUHU216HW,2013-05-04 12:13:00,
2013-05-04 08:15:00,52.0,47.9,29.78,SE,135,4.9,6.5,86,0.02,,,0.14,WUHU216HW,2013-05-04 12:15:00,
2013-05-04 08:16:00,52.0,47.9,29.78,SE,126,4.0,6.5,86,0.02,,,0.14,WUHU216HW,2013-05-04 12:16:00,
2013-05-04 08:19:00,52.0,48.3,29.78,SE,135,3.1,6.5,87,0.03,,,0.15,WUHU216HW,2013-05-04 12:19:00,
2013-05-04 08:20:00,52.0,48.3,29.78,SSW,203,7.8,7.8,87,0.03,,,0.15,WUHU216HW,2013-05-04 12:20:00,
2013-05-04 08:24:00,52.2,48.4,29.78,South,180,8.9,8.9,87,0.04,,,0.16,WUHU216HW,2013-05-04 12:24:00,
2013-05-04 08:25:00,52.2,48.4,29.78,SSE,158,10.7,10.7,87,0.04,,,0.16,WUHU216HW,2013-05-04 12:25:00,
2013-05-04 08:26:00,52.2,48.4,29.78,SSE,150,8.1,10.7,87,0.04,,,0.16,WUHU216HW,2013-05-04 12:26:00,
2013-05-04 08:29:00,52.2,48.4,29.77,SSW,203,4.7,10.7,87,0.04,,,0.16,WUHU216HW,2013-05-04 12:29:00,
2013-05-04 08:31:00,52.2,48.4,29.77,SE,135,6.9,10.7,87,0.04,,,0.16,WUHU216HW,2013-05-04 12:31:00,
2013-05-04 08:33:00,52.2,48.4,29.77,SSE,150,5.8,10.7,87,0.04,,,0.16,WUHU216HW,2013-05-04 12:33:00,
2013-05-04 08:34:00,52.2,48.1,29.77,South,170,3.7,7.6,86,0.04,,,0.16,WUHU216HW,2013-05-04 12:34:00,
2013-05-04 08:36:00,52.4,48.2,29.77,South,180,10.7,10.7,86,0.04,,,0.16,WUHU216HW,2013-05-04 12:36:00,
2013-05-04 08:38:00,52.4,48.2,29.77,ENE,78,4.9,10.7,86,0.04,,,0.16,WUHU216HW,2013-05-04 12:38:00,
2013-05-04 08:40:00,52.4,48.2,29.76,ENE,68,5.6,10.7,86,0.04,,,0.16,WUHU216HW,2013-05-04 12:40:00,
2013-05-04 08:42:00,52.6,48.4,29.76,SE,135,4.7,10.7,86,0.04,,,0.16,WUHU216HW,2013-05-04 12:42:00,
2013-05-04 08:44:00,52.6,48.4,29.76,WSW,248,4.7,10.7,86,0.03,,,0.16,WUHU216HW,2013-05-04 12:44:00,
2013-05-04 08:45:00,52.6,48.4,29.76,SE,135,6.0,10.7,86,0.03,,,0.16,WUHU216HW,2013-05-04 12:45:00,
2013-05-04 08:47:00,52.6,48.4,29.76,South,170,4.8,6.9,86,0.03,,,0.16,WUHU216HW,2013-05-04 12:47:00,
2013-05-04 08:48:00,52.6,48.4,29.76,East,90,6.0,6.9,86,0.03,,,0.16,WUHU216HW,2013-05-04 12:48:00,
2013-05-04 08:50:00,52.6,48.4,29.76,SE,125,8.6,9.6,86,0.03,,,0.16,WUHU216HW,2013-05-04 12:50:00,
2013-05-04 08:51:00,52.6,48.4,29.76,SE,125,8.6,9.6,86,0.03,,,0.16,WUHU216HW,2013-05-04 12:51:00,
2013-05-04 08:52:00,52.7,48.6,29.76,South,180,11.9,11.9,86,0.03,,,0.16,WUHU216HW,2013-05-04 12:52:00,
2013-05-04 08:53:00,52.7,48.6,29.76,SSE,161,10.5,11.9,86,0.03,,,0.16,WUHU216HW,2013-05-04 12:53:00,
2013-05-04 08:55:00,52.9,48.8,29.76,SW,225,4.7,11.9,86,0.03,,,0.16,WUHU216HW,2013-05-04 12:55:00,
2013-05-04 08:56:00,52.9,48.8,29.76,SW,217,3.6,11.9,86,0.03,,,0.16,WUHU216HW,2013-05-04 12:56:00,
2013-05-04 08:58:00,52.9,48.8,29.76,ESE,113,10.5,11.9,86,0.03,,,0.16,WUHU216HW,2013-05-04 12:58:00,
2013-05-04 09:01:00,52.9,48.8,29.76,SE,135,6.5,12.1,86,0.03,,,0.16,WUHU216HW,2013-05-04 13:01:00,
2013-05-04 09:02:00,52.9,48.8,29.76,East,90,9.2,12.1,86,0.03,,,0.16,WUHU216HW,2013-05-04 13:02:00,
2013-05-04 09:04:00,53.1,48.7,29.76,SE,145,8.6,12.1,85,0.03,,,0.16,WUHU216HW,2013-05-04 13:04:00,
2013-05-04 09:05:00,53.1,48.7,29.76,SSE,147,7.1,12.1,85,0.03,,,0.16,WUHU216HW,2013-05-04 13:05:00,
2013-05-04 09:07:00,53.1,48.7,29.76,SSE,158,7.2,12.1,85,0.02,,,0.16,WUHU216HW,2013-05-04 13:07:00,
2013-05-04 09:09:00,53.3,48.9,29.76,SSE,167,7.9,9.6,85,0.02,,,0.16,WUHU216HW,2013-05-04 13:09:00,
2013-05-04 09:10:00,53.3,48.9,29.76,SSE,167,7.9,9.6,85,0.02,,,0.16,WUHU216HW,2013-05-04 13:10:00,
2013-05-04 09:11:00,53.3,48.9,29.76,South,175,3.9,9.6,85,0.02,,,0.16,WUHU216HW,2013-05-04 13:11:00,
2013-05-04 09:12:00,53.3,48.9,29.76,SSW,203,3.4,9.6,85,0.02,,,0.16,WUHU216HW,2013-05-04 13:12:00,
2013-05-04 09:14:00,53.3,48.9,29.76,SE,125,12.0,17.4,85,0.01,,,0.16,WUHU216HW,2013-05-04 13:14:00,
2013-05-04 09:15:00,53.3,48.9,29.76,SE,125,12.0,17.4,85,0.01,,,0.16,WUHU216HW,2013-05-04 13:15:00,
2013-05-04 09:16:00,53.3,48.9,29.76,SSE,158,7.4,17.4,85,0.02,,,0.17,WUHU216HW,2013-05-04 13:16:00,
2013-05-04 09:17:00,53.3,48.9,29.76,SE,135,14.8,17.4,85,0.02,,,0.17,WUHU216HW,2013-05-04 13:17:00,
2013-05-04 09:18:00,53.3,48.6,29.76,SE,125,13.6,17.4,84,0.02,,,0.17,WUHU216HW,2013-05-04 13:18:00,
2013-05-04 09:20:00,53.3,48.6,29.76,SE,125,10.1,17.4,84,0.02,,,0.17,WUHU216HW,2013-05-04 13:20:00,
2013-05-04 09:22:00,53.3,48.6,29.76,East,100,6.2,17.4,84,0.01,,,0.17,WUHU216HW,2013-05-04 13:22:00,
2013-05-04 09:23:00,53.3,48.6,29.76,SE,135,8.9,17.4,84,0.01,,,0.17,WUHU216HW,2013-05-04 13:23:00,
2013-05-04 09:24:00,53.3,48.6,29.76,SE,142,5.3,14.8,84,0.01,,,0.17,WUHU216HW,2013-05-04 13:24:00,
2013-05-04 09:25:00,53.3,48.9,29.76,SE,135,6.9,14.8,85,0.01,,,0.17,WUHU216HW,2013-05-04 13:25:00,
2013-05-04 09:27:00,53.3,48.6,29.76,SE,127,5.4,12.5,84,0.01,,,0.17,WUHU216HW,2013-05-04 13:27:00,
2013-05-04 09:28:00,53.3,48.9,29.76,SSW,203,11.4,11.4,85,0.01,,,0.17,WUHU216HW,2013-05-04 13:28:00,
2013-05-04 09:31:00,53.3,49.1,29.76,SW,225,8.9,11.4,86,0.02,,,0.18,WUHU216HW,2013-05-04 13:31:00,
2013-05-04 09:33:00,52.9,48.8,29.76,South,180,6.3,11.4,86,0.03,,,0.19,WUHU216HW,2013-05-04 13:33:00,
2013-05-04 09:34:00,52.9,48.8,29.76,SSE,158,11.0,11.4,86,0.03,,,0.19,WUHU216HW,2013-05-04 13:34:00,
2013-05-04 09:36:00,52.9,48.8,29.76,SE,135,6.3,11.4,86,0.04,,,0.20,WUHU216HW,2013-05-04 13:36:00,
2013-05-04 09:39:00,52.9,48.8,29.77,ESE,120,6.3,11.0,86,0.04,,,0.20,WUHU216HW,2013-05-04 13:39:00,
2013-05-04 09:40:00,52.7,48.6,29.76,SE,135,6.9,11.0,86,0.04,,,0.20,WUHU216HW,2013-05-04 13:40:00,
2013-05-04 09:43:00,52.7,48.6,29.76,East,101,8.0,11.0,86,0.06,,,0.22,WUHU216HW,2013-05-04 13:43:00,
2013-05-04 09:45:00,52.9,48.8,29.76,SE,144,5.9,8.3,86,0.06,,,0.22,WUHU216HW,2013-05-04 13:45:00,
2013-05-04 09:46:00,52.7,48.6,29.77,SSE,158,10.5,10.5,86,0.06,,,0.22,WUHU216HW,2013-05-04 13:46:00,
2013-05-04 09:47:00,52.7,48.6,29.77,SSE,148,8.9,10.5,86,0.06,,,0.22,WUHU216HW,2013-05-04 13:47:00,
2013-05-04 09:49:00,52.9,48.8,29.77,SE,145,6.3,10.5,86,0.06,,,0.22,WUHU216HW,2013-05-04 13:49:00,
2013-05-04 09:51:00,52.7,48.6,29.77,SE,129,5.8,10.5,86,0.06,,,0.22,WUHU216HW,2013-05-04 13:51:00,
2013-05-04 09:52:00,52.7,48.6,29.77,SSW,203,6.3,10.5,86,0.07,,,0.23,WUHU216HW,2013-05-04 13:52:00,
2013-05-04 09:54:00,52.7,48.6,29.78,SSE,158,6.9,10.5,86,0.07,,,0.23,WUHU216HW,2013-05-04 13:54:00,
2013-05-04 09:56:00,52.6,48.4,29.78,SE,142,5.9,8.3,86,0.08,,,0.24,WUHU216HW,2013-05-04 13:56:00,
2013-05-04 09:57:00,52.6,48.4,29.78,SE,142,5.9,8.3,86,0.08,,,0.24,WUHU216HW,2013-05-04 13:57:00,
2013-05-04 09:59:00,52.6,48.4,29.78,SSE,158,2.5,8.3,86,0.10,,,0.26,WUHU216HW,2013-05-04 13:59:00,
2013-05-04 10:01:00,52.4,48.6,29.79,SE,127,4.6,8.3,87,0.11,,,0.27,WUHU216HW,2013-05-04 14:01:00,
2013-05-04 10:02:00,52.4,48.6,29.79,SE,127,4.6,8.3,87,0.11,,,0.27,WUHU216HW,2013-05-04 14:02:00,
2013-05-04 10:03:00,52.4,48.6,29.79,ESE,113,3.0,8.3,87,0.11,,,0.27,WUHU216HW,2013-05-04 14:03:00,
2013-05-04 10:05:00,52.6,48.8,29.79,SSW,203,4.0,6.9,87,0.13,,,0.29,WUHU216HW,2013-05-04 14:05:00,
2013-05-04 10:07:00,52.4,48.6,29.79,ESE,113,4.3,6.9,87,0.13,,,0.29,WUHU216HW,2013-05-04 14:07:00,
2013-05-04 10:08:00,52.4,48.6,29.79,SE,134,4.1,6.9,87,0.13,,,0.29,WUHU216HW,2013-05-04 14:08:00,
2013-05-04 10:09:00,52.4,48.6,29.79,South,172,2.8,6.0,87,0.13,,,0.29,WUHU216HW,2013-05-04 14:09:00,
2013-05-04 10:11:00,52.4,48.6,29.79,SSW,195,3.3,4.3,87,0.13,,,0.29,WUHU216HW,2013-05-04 14:11:00,
2013-05-04 10:13:00,52.4,48.6,29.79,SSW,203,2.9,4.3,87,0.13,,,0.29,WUHU216HW,2013-05-04 14:13:00,
2013-05-04 10:14:00,52.4,48.6,29.79,ESE,113,2.9,4.3,87,0.15,,,0.31,WUHU216HW,2013-05-04 14:14:00,
2013-05-04 10:17:00,52.4,48.6,29.79,SSE,158,2.7,4.3,87,0.14,,,0.31,WUHU216HW,2013-05-04 14:17:00,
2013-05-04 10:18:00,52.2,48.4,29.78,ESE,113,3.4,4.0,87,0.14,,,0.31,WUHU216HW,2013-05-04 14:18:00,
2013-05-04 10:19:00,52.4,48.6,29.78,ESE,113,3.8,4.0,87,0.14,,,0.31,WUHU216HW,2013-05-04 14:19:00,
2013-05-04 10:20:00,52.4,48.6,29.78,ESE,113,3.2,4.0,87,0.14,,,0.31,WUHU216HW,2013-05-04 14:20:00,
2013-05-04 10:22:00,52.4,48.6,29.77,SW,218,1.7,3.8,87,0.16,,,0.33,WUHU216HW,2013-05-04 14:22:00,
2013-05-04 10:23:00,52.2,48.4,29.77,ESE,113,2.5,3.8,87,0.16,,,0.33,WUHU216HW,2013-05-04 14:23:00,
2013-05-04 10:24:00,52.2,48.4,29.77,ESE,113,4.0,4.0,87,0.17,,,0.34,WUHU216HW,2013-05-04 14:24:00,
2013-05-04 10:25:00,52.2,48.4,29.77,East,90,3.8,4.0,87,0.18,,,0.35,WUHU216HW,2013-05-04 14:25:00,
2013-05-04 10:26:00,52.2,48.4,29.77,East,90,3.8,4.0,87,0.18,,,0.35,WUHU216HW,2013-05-04 14:26:00,
2013-05-04 10:27:00,52.2,48.4,29.77,East,98,2.9,4.0,87,0.18,,,0.35,WUHU216HW,2013-05-04 14:27:00,
2013-05-04 10:28:00,52.2,48.4,29.76,SE,135,6.9,6.9,87,0.18,,,0.36,WUHU216HW,2013-05-04 14:28:00,
2013-05-04 10:29:00,52.2,48.4,29.76,ESE,113,5.4,6.9,87,0.18,,,0.36,WUHU216HW,2013-05-04 14:29:00,
2013-05-04 10:31:00,52.2,48.4,29.76,East,90,5.4,6.9,87,0.17,,,0.36,WUHU216HW,2013-05-04 14:31:00,
2013-05-04 10:34:00,52.4,48.9,29.76,ENE,73,5.5,6.9,88,0.17,,,0.36,WUHU216HW,2013-05-04 14:34:00,
2013-05-04 10:35:00,52.4,48.9,29.76,East,90,7.6,7.6,88,0.16,,,0.36,WUHU216HW,2013-05-04 14:35:00,
2013-05-04 10:37:00,52.6,49.1,29.76,ESE,113,5.4,7.6,88,0.18,,,0.38,WUHU216HW,2013-05-04 14:37:00,
2013-05-04 10:39:00,52.7,49.0,29.76,East,97,7.1,7.8,87,0.18,,,0.38,WUHU216HW,2013-05-04 14:39:00,
2013-05-04 10:40:00,52.9,49.2,29.76,SE,125,5.5,7.8,87,0.18,,,0.38,WUHU216HW,2013-05-04 14:40:00,
2013-05-04 10:42:00,53.1,49.3,29.76,SE,131,5.1,7.8,87,0.16,,,0.38,WUHU216HW,2013-05-04 14:42:00,
2013-05-04 10:43:00,53.1,49.3,29.77,East,90,8.9,8.9,87,0.16,,,0.38,WUHU216HW,2013-05-04 14:43:00,
2013-05-04 10:45:00,53.5,49.7,29.77,SSE,158,5.8,8.9,87,0.16,,,0.38,WUHU216HW,2013-05-04 14:45:00,
2013-05-04 10:48:00,53.5,49.3,29.77,ESE,113,5.1,8.9,86,0.16,,,0.38,WUHU216HW,2013-05-04 14:48:00,
2013-05-04 10:51:00,53.6,49.5,29.78,SSW,203,6.3,8.9,86,0.15,,,0.38,WUHU216HW,2013-05-04 14:51:00,
2013-05-04 10:54:00,53.6,49.5,29.78,ESE,113,5.4,7.6,86,0.14,,,0.38,WUHU216HW,2013-05-04 14:54:00,
2013-05-04 10:55:00,53.6,49.5,29.78,ESE,113,11.0,11.0,86,0.14,,,0.38,WUHU216HW,2013-05-04 14:55:00,
2013-05-04 10:56:00,53.6,49.5,29.78,SE,142,8.6,11.0,86,0.13,,,0.38,WUHU216HW,2013-05-04 14:56:00,
2013-05-04 11:00:00,53.6,49.5,29.78,SE,135,5.4,11.0,86,0.13,,,0.40,WUHU216HW,2013-05-04 15:00:00,
2013-05-04 11:01:00,53.5,49.3,29.78,SE,144,4.4,11.0,86,0.13,,,0.40,WUHU216HW,2013-05-04 15:01:00,
2013-05-04 11:02:00,53.5,49.3,29.78,SSE,158,4.7,11.0,86,0.13,,,0.40,WUHU216HW,2013-05-04 15:02:00,
2013-05-04 11:06:00,53.3,49.1,29.78,SSW,211,3.3,7.2,86,0.12,,,0.41,WUHU216HW,2013-05-04 15:06:00,
2013-05-04 11:07:00,53.5,49.3,29.78,ESE,113,4.3,5.4,86,0.12,,,0.41,WUHU216HW,2013-05-04 15:07:00,
2013-05-04 11:08:00,53.5,49.3,29.78,ESE,113,4.3,5.4,86,0.12,,,0.41,WUHU216HW,2013-05-04 15:08:00,
2013-05-04 11:11:00,53.5,49.3,29.78,ESE,116,2.5,5.6,86,0.13,,,0.42,WUHU216HW,2013-05-04 15:11:00,
2013-05-04 11:13:00,53.3,49.1,29.79,ESE,113,2.7,5.6,86,0.11,,,0.42,WUHU216HW,2013-05-04 15:13:00,
2013-05-04 11:14:00,53.3,49.1,29.79,South,180,6.5,6.5,86,0.12,,,0.43,WUHU216HW,2013-05-04 15:14:00,
2013-05-04 11:16:00,53.3,49.1,29.79,SSW,211,4.3,6.5,86,0.12,,,0.43,WUHU216HW,2013-05-04 15:16:00,
2013-05-04 11:18:00,53.3,49.1,29.78,SSE,158,5.4,6.5,86,0.12,,,0.43,WUHU216HW,2013-05-04 15:18:00,
2013-05-04 11:20:00,53.3,49.1,29.79,SE,137,4.3,6.5,86,0.11,,,0.44,WUHU216HW,2013-05-04 15:20:00,
2013-05-04 11:22:00,53.3,49.1,29.78,SSW,213,4.3,6.5,86,0.10,,,0.44,WUHU216HW,2013-05-04 15:22:00,
2013-05-04 11:24:00,53.3,49.5,29.78,SE,144,6.8,8.9,87,0.10,,,0.45,WUHU216HW,2013-05-04 15:24:00,
2013-05-04 11:25:00,53.3,49.5,29.78,SE,135,6.3,8.9,87,0.10,,,0.45,WUHU216HW,2013-05-04 15:25:00,
2013-05-04 11:29:00,53.1,49.3,29.79,SSE,158,6.3,8.9,87,0.10,,,0.46,WUHU216HW,2013-05-04 15:29:00,
2013-05-04 11:30:00,53.1,49.3,29.79,SE,135,6.9,8.9,87,0.11,,,0.47,WUHU216HW,2013-05-04 15:30:00,
2013-05-04 11:31:00,53.1,49.3,29.79,SSE,158,5.3,8.9,87,0.11,,,0.47,WUHU216HW,2013-05-04 15:31:00,
2013-05-04 11:32:00,53.1,49.3,29.79,SSE,158,4.7,8.9,87,0.11,,,0.47,WUHU216HW,2013-05-04 15:32:00,
2013-05-04 11:35:00,53.1,49.3,29.79,SSE,158,4.3,6.9,87,0.12,,,0.48,WUHU216HW,2013-05-04 15:35:00,
2013-05-04 11:36:00,53.1,49.6,29.79,SE,135,6.9,6.9,88,0.11,,,0.49,WUHU216HW,2013-05-04 15:36:00,
2013-05-04 11:38:00,53.1,49.6,29.79,SW,225,7.2,7.2,88,0.11,,,0.49,WUHU216HW,2013-05-04 15:38:00,
2013-05-04 11:40:00,53.3,49.8,29.77,ENE,68,6.0,7.2,88,0.12,,,0.50,WUHU216HW,2013-05-04 15:40:00,
2013-05-04 11:41:00,53.3,49.8,29.77,ENE,68,6.0,7.2,88,0.12,,,0.50,WUHU216HW,2013-05-04 15:41:00,
2013-05-04 11:43:00,53.3,49.5,29.77,ESE,113,2.5,7.2,87,0.13,,,0.51,WUHU216HW,2013-05-04 15:43:00,
2013-05-04 11:46:00,53.3,49.8,29.78,East,90,9.3,9.6,88,0.15,,,0.53,WUHU216HW,2013-05-04 15:46:00,
2013-05-04 11:47:00,53.3,49.8,29.78,West,270,9.8,9.8,88,0.15,,,0.53,WUHU216HW,2013-05-04 15:47:00,
2013-05-04 11:48:00,53.3,49.8,29.78,West,259,6.6,9.8,88,0.15,,,0.53,WUHU216HW,2013-05-04 15:48:00,
2013-05-04 11:49:00,53.3,49.8,29.78,ESE,113,8.3,9.8,88,0.15,,,0.53,WUHU216HW,2013-05-04 15:49:00,
2013-05-04 11:51:00,53.3,49.8,29.78,SE,135,8.3,9.8,88,0.16,,,0.54,WUHU216HW,2013-05-04 15:51:00,
2013-05-04 11:52:00,53.3,49.8,29.78,SE,135,9.6,9.8,88,0.16,,,0.54,WUHU216HW,2013-05-04 15:52:00,
2013-05-04 11:53:00,53.3,49.8,29.78,South,180,11.4,11.4,88,0.17,,,0.55,WUHU216HW,2013-05-04 15:53:00,
2013-05-04 11:56:00,53.3,49.8,29.78,South,180,7.4,11.4,88,0.18,,,0.56,WUHU216HW,2013-05-04 15:56:00,
2013-05-04 11:57:00,53.3,49.8,29.78,SE,135,9.4,11.4,88,0.17,,,0.57,WUHU216HW,2013-05-04 15:57:00,
2013-05-04 11:59:00,53.3,49.8,29.79,SE,135,5.9,11.4,88,0.17,,,0.57,WUHU216HW,2013-05-04 15:59:00,
2013-05-04 12:02:00,53.3,49.8,29.79,SSE,158,9.8,11.4,88,0.18,,,0.59,WUHU216HW,2013-05-04 16:02:00,
2013-05-04 12:04:00,53.3,49.8,29.79,SE,127,7.1,9.8,88,0.19,,,0.60,WUHU216HW,2013-05-04 16:04:00,
2013-05-04 12:05:00,53.1,49.6,29.79,SE,135,3.5,9.8,88,0.19,,,0.60,WUHU216HW,2013-05-04 16:05:00,
2013-05-04 12:07:00,53.1,49.6,29.78,SSW,193,4.5,9.8,88,0.19,,,0.61,WUHU216HW,2013-05-04 16:07:00,
2013-05-04 12:09:00,53.1,49.6,29.78,North,11,3.9,9.8,88,0.20,,,0.62,WUHU216HW,2013-05-04 16:09:00,
2013-05-04 12:10:00,53.1,49.6,29.78,North,11,3.9,9.8,88,0.20,,,0.62,WUHU216HW,2013-05-04 16:10:00,
2013-05-04 12:11:00,53.1,49.6,29.78,SW,225,6.5,9.8,88,0.20,,,0.62,WUHU216HW,2013-05-04 16:11:00,
2013-05-04 12:13:00,53.1,49.6,29.78,NE,52,6.6,9.2,88,0.19,,,0.62,WUHU216HW,2013-05-04 16:13:00,
2013-05-04 12:15:00,53.3,49.8,29.79,SE,130,8.5,9.8,88,0.20,,,0.63,WUHU216HW,2013-05-04 16:15:00,
2013-05-04 12:16:00,53.3,49.5,29.78,ESE,111,6.8,9.8,87,0.20,,,0.63,WUHU216HW,2013-05-04 16:16:00,
2013-05-04 12:20:00,53.5,49.7,29.78,SE,135,2.0,9.8,87,0.19,,,0.63,WUHU216HW,2013-05-04 16:20:00,
2013-05-04 12:21:00,53.5,49.7,29.78,ESE,113,6.3,9.8,87,0.19,,,0.64,WUHU216HW,2013-05-04 16:21:00,
2013-05-04 12:22:00,53.5,49.7,29.78,ESE,113,6.3,9.8,87,0.19,,,0.64,WUHU216HW,2013-05-04 16:22:00,
2013-05-04 12:23:00,53.5,49.7,29.79,ESE,120,4.7,9.8,87,0.19,,,0.64,WUHU216HW,2013-05-04 16:23:00,
2013-05-04 12:26:00,53.5,49.7,29.79,SSE,156,5.9,6.5,87,0.20,,,0.65,WUHU216HW,2013-05-04 16:26:00,
2013-05-04 12:27:00,53.3,49.5,29.79,ESE,113,6.3,6.3,87,0.19,,,0.65,WUHU216HW,2013-05-04 16:27:00,
2013-05-04 12:28:00,53.3,49.5,29.79,ESE,113,4.9,6.3,87,0.19,,,0.65,WUHU216HW,2013-05-04 16:28:00,
2013-05-04 12:31:00,53.3,49.5,29.78,East,83,3.3,6.3,87,0.19,,,0.66,WUHU216HW,2013-05-04 16:31:00,
2013-05-04 12:32:00,53.3,49.5,29.78,SE,135,4.0,6.3,87,0.19,,,0.66,WUHU216HW,2013-05-04 16:32:00,
2013-05-04 12:33:00,53.1,49.6,29.78,SE,135,2.5,6.3,88,0.18,,,0.66,WUHU216HW,2013-05-04 16:33:00,
2013-05-04 12:36:00,53.1,49.6,29.78,SE,135,1.8,6.3,88,0.18,,,0.67,WUHU216HW,2013-05-04 16:36:00,
2013-05-04 12:37:00,53.1,49.6,29.78,SE,135,3.4,4.0,88,0.18,,,0.67,WUHU216HW,2013-05-04 16:37:00,
2013-05-04 12:38:00,53.1,49.6,29.78,SE,135,3.8,4.0,88,0.18,,,0.67,WUHU216HW,2013-05-04 16:38:00,
2013-05-04 12:39:00,53.1,49.6,29.78,South,178,3.7,4.0,88,0.18,,,0.68,WUHU216HW,2013-05-04 16:39:00,
2013-05-04 12:41:00,53.1,49.6,29.78,SSW,204,4.7,4.9,88,0.17,,,0.68,WUHU216HW,2013-05-04 16:41:00,
2013-05-04 12:42:00,53.1,49.6,29.78,East,90,9.2,9.2,88,0.17,,,0.68,WUHU216HW,2013-05-04 16:42:00,
2013-05-04 12:43:00,53.3,49.8,29.79,SSE,166,5.9,9.2,88,0.17,,,0.69,WUHU216HW,2013-05-04 16:43:00,
2013-05-04 12:44:00,53.3,49.8,29.79,SSE,166,5.9,9.2,88,0.17,,,0.69,WUHU216HW,2013-05-04 16:44:00,
2013-05-04 12:45:00,53.3,49.8,29.79,South,189,4.0,9.2,88,0.16,,,0.69,WUHU216HW,2013-05-04 16:45:00,
2013-05-04 12:46:00,53.3,49.8,29.79,West,270,3.1,9.2,88,0.17,,,0.70,WUHU216HW,2013-05-04 16:46:00,
2013-05-04 12:47:00,53.3,49.8,29.79,SW,225,3.8,9.2,88,0.17,,,0.70,WUHU216HW,2013-05-04 16:47:00,
2013-05-04 12:49:00,53.3,49.8,29.79,South,180,3.1,9.2,88,0.18,,,0.71,WUHU216HW,2013-05-04 16:49:00,
2013-05-04 12:50:00,53.3,49.8,29.79,SSW,195,2.3,9.2,88,0.17,,,0.71,WUHU216HW,2013-05-04 16:50:00,
2013-05-04 12:52:00,53.1,49.6,29.79,SSE,158,4.7,5.4,88,0.17,,,0.72,WUHU216HW,2013-05-04 16:52:00,
2013-05-04 12:53:00,53.1,49.6,29.79,South,180,4.7,4.7,88,0.16,,,0.72,WUHU216HW,2013-05-04 16:53:00,
2013-05-04 12:55:00,53.1,49.6,29.79,SSE,158,4.6,5.4,88,0.16,,,0.73,WUHU216HW,2013-05-04 16:55:00,
2013-05-04 12:56:00,53.1,49.6,29.79,SSE,158,4.6,5.4,88,0.16,,,0.73,WUHU216HW,2013-05-04 16:56:00,
2013-05-04 12:58:00,53.1,49.6,29.79,SW,225,5.4,5.4,88,0.16,,,0.73,WUHU216HW,2013-05-04 16:58:00,
2013-05-04 12:59:00,53.1,49.6,29.79,SSW,208,4.3,5.4,88,0.17,,,0.75,WUHU216HW,2013-05-04 16:59:00,
2013-05-04 13:01:00,53.3,49.8,29.80,South,186,4.1,5.4,88,0.17,,,0.76,WUHU216HW,2013-05-04 17:01:00,
2013-05-04 13:02:00,53.3,49.8,29.80,South,186,4.1,5.4,88,0.17,,,0.76,WUHU216HW,2013-05-04 17:02:00,
2013-05-04 13:03:00,53.3,50.1,29.80,SSE,158,4.0,5.4,89,0.17,,,0.77,WUHU216HW,2013-05-04 17:03:00,
2013-05-04 13:05:00,53.3,50.1,29.80,South,180,2.7,5.4,89,0.18,,,0.79,WUHU216HW,2013-05-04 17:05:00,
2013-05-04 13:07:00,53.3,49.8,29.80,West,270,3.6,5.4,88,0.19,,,0.80,WUHU216HW,2013-05-04 17:07:00,
2013-05-04 13:09:00,53.3,49.8,29.80,West,270,2.5,4.5,88,0.18,,,0.80,WUHU216HW,2013-05-04 17:09:00,
2013-05-04 13:11:00,53.3,49.8,29.80,NNW,338,1.6,4.0,88,0.19,,,0.81,WUHU216HW,2013-05-04 17:11:00,
2013-05-04 13:12:00,53.3,49.8,29.80,WSW,248,3.8,4.0,88,0.20,,,0.82,WUHU216HW,2013-05-04 17:12:00,
2013-05-04 13:14:00,53.3,50.1,29.81,WSW,248,5.4,5.4,89,0.20,,,0.83,WUHU216HW,2013-05-04 17:14:00,
2013-05-04 13:15:00,53.3,50.1,29.81,WSW,248,5.4,5.4,89,0.20,,,0.83,WUHU216HW,2013-05-04 17:15:00,
2013-05-04 13:16:00,53.5,50.3,29.81,WSW,252,3.2,5.4,89,0.22,,,0.85,WUHU216HW,2013-05-04 17:16:00,
2013-05-04 13:17:00,53.5,50.3,29.80,West,270,1.8,5.4,89,0.22,,,0.85,WUHU216HW,2013-05-04 17:17:00,
2013-05-04 13:20:00,53.5,50.3,29.81,SSE,158,2.0,5.4,89,0.22,,,0.86,WUHU216HW,2013-05-04 17:20:00,
2013-05-04 13:21:00,53.5,50.3,29.81,SSE,158,2.0,5.4,89,0.22,,,0.86,WUHU216HW,2013-05-04 17:21:00,
2013-05-04 13:23:00,53.6,50.5,29.81,East,84,1.7,5.4,89,0.23,,,0.87,WUHU216HW,2013-05-04 17:23:00,
2013-05-04 13:24:00,53.5,50.3,29.81,SSW,203,4.5,5.4,89,0.25,,,0.89,WUHU216HW,2013-05-04 17:24:00,
2013-05-04 13:26:00,53.5,50.3,29.81,West,270,3.8,4.5,89,0.25,,,0.90,WUHU216HW,2013-05-04 17:26:00,
2013-05-04 13:28:00,53.5,50.3,29.81,NNE,23,1.8,4.5,89,0.27,,,0.92,WUHU216HW,2013-05-04 17:28:00,
2013-05-04 13:29:00,53.3,50.1,29.81,North,355,1.5,4.5,89,0.27,,,0.92,WUHU216HW,2013-05-04 17:29:00,
2013-05-04 13:32:00,53.3,50.1,29.81,East,79,1.1,4.5,89,0.28,,,0.94,WUHU216HW,2013-05-04 17:32:00,
2013-05-04 13:33:00,53.3,50.1,29.81,NW,315,0.4,4.5,89,0.27,,,0.94,WUHU216HW,2013-05-04 17:33:00,
2013-05-04 13:34:00,53.1,50.0,29.81,WSW,248,1.1,3.8,89,0.27,,,0.94,WUHU216HW,2013-05-04 17:34:00,
2013-05-04 13:35:00,53.1,50.0,29.80,WSW,248,0.9,3.8,89,0.29,,,0.96,WUHU216HW,2013-05-04 17:35:00,
2013-05-04 13:37:00,53.1,50.0,29.80,West,270,0.4,3.1,89,0.30,,,0.97,WUHU216HW,2013-05-04 17:37:00,
2013-05-04 13:38:00,53.1,50.0,29.80,West,270,0.0,3.1,89,0.30,,,0.98,WUHU216HW,2013-05-04 17:38:00,
2013-05-04 13:39:00,53.3,50.1,29.79,West,270,0.0,3.1,89,0.30,,,0.98,WUHU216HW,2013-05-04 17:39:00,
2013-05-04 13:40:00,53.3,50.1,29.80,West,270,0.0,1.8,89,0.30,,,0.98,WUHU216HW,2013-05-04 17:40:00,
2013-05-04 13:43:00,53.3,50.1,29.80,NNW,338,0.4,1.1,89,0.30,,,0.99,WUHU216HW,2013-05-04 17:43:00,
2013-05-04 13:44:00,53.3,50.1,29.80,North,0,0.7,1.1,89,0.30,,,0.99,WUHU216HW,2013-05-04 17:44:00,
2013-05-04 13:46:00,53.3,50.1,29.80,North,0,0.7,1.1,89,0.31,,,1.01,WUHU216HW,2013-05-04 17:46:00,
2013-05-04 13:48:00,53.5,50.3,29.80,West,270,0.2,1.1,89,0.30,,,1.01,WUHU216HW,2013-05-04 17:48:00,
2013-05-04 13:49:00,53.5,50.3,29.80,West,270,0.2,1.1,89,0.30,,,1.01,WUHU216HW,2013-05-04 17:49:00,
2013-05-04 13:51:00,53.6,50.5,29.80,SSW,203,0.2,0.7,89,0.30,,,1.01,WUHU216HW,2013-05-04 17:51:00,
2013-05-04 13:52:00,53.6,50.5,29.80,North,0,0.4,0.7,89,0.29,,,1.01,WUHU216HW,2013-05-04 17:52:00,
2013-05-04 13:54:00,53.6,50.5,29.80,SE,135,0.4,0.7,89,0.29,,,1.01,WUHU216HW,2013-05-04 17:54:00,
2013-05-04 13:55:00,53.6,50.5,29.80,WSW,248,1.3,1.3,89,0.28,,,1.01,WUHU216HW,2013-05-04 17:55:00,
2013-05-04 13:56:00,53.6,50.5,29.80,WSW,248,0.8,1.3,89,0.28,,,1.01,WUHU216HW,2013-05-04 17:56:00,
2013-05-04 13:58:00,53.8,50.7,29.80,North,0,0.7,1.3,89,0.28,,,1.01,WUHU216HW,2013-05-04 17:58:00,
2013-05-04 14:00:00,53.8,50.7,29.80,West,270,0.6,1.3,89,0.25,,,1.01,WUHU216HW,2013-05-04 18:00:00,
2013-05-04 14:01:00,54.0,50.9,29.79,WSW,248,1.1,1.3,89,0.24,,,1.01,WUHU216HW,2013-05-04 18:01:00,
2013-05-04 14:03:00,54.2,51.0,29.79,WSW,248,0.8,1.3,89,0.24,,,1.03,WUHU216HW,2013-05-04 18:03:00,
2013-05-04 14:05:00,54.4,51.2,29.79,WSW,248,0.0,1.1,89,0.23,,,1.03,WUHU216HW,2013-05-04 18:05:00,
2013-05-04 14:06:00,54.4,51.2,29.79,SW,225,1.3,1.3,89,0.23,,,1.03,WUHU216HW,2013-05-04 18:06:00,
2013-05-04 14:08:00,54.5,51.0,29.79,WSW,248,1.8,1.8,88,0.23,,,1.04,WUHU216HW,2013-05-04 18:08:00,
2013-05-04 14:09:00,54.5,51.0,29.79,West,270,2.2,2.2,88,0.23,,,1.04,WUHU216HW,2013-05-04 18:09:00,
2013-05-04 14:12:00,54.7,51.2,29.79,West,270,0.8,2.2,88,0.22,,,1.05,WUHU216HW,2013-05-04 18:12:00,
2013-05-04 14:13:00,54.9,51.4,29.79,West,270,0.2,2.2,88,0.20,,,1.05,WUHU216HW,2013-05-04 18:13:00,
2013-05-04 14:14:00,54.9,51.4,29.79,West,270,0.2,2.2,88,0.20,,,1.05,WUHU216HW,2013-05-04 18:14:00,
2013-05-04 14:17:00,55.1,51.6,29.79,WSW,239,1.8,2.2,88,0.20,,,1.06,WUHU216HW,2013-05-04 18:17:00,
2013-05-04 14:18:00,55.1,51.2,29.79,SSW,194,1.2,2.2,87,0.21,,,1.07,WUHU216HW,2013-05-04 18:18:00,
2013-05-04 14:19:00,55.1,51.2,29.79,SSW,194,1.2,2.2,87,0.21,,,1.07,WUHU216HW,2013-05-04 18:19:00,
2013-05-04 14:22:00,55.1,51.2,29.80,SW,225,2.0,2.2,87,0.19,,,1.08,WUHU216HW,2013-05-04 18:22:00,
2013-05-04 14:23:00,55.1,51.2,29.80,SW,229,1.2,2.2,87,0.19,,,1.08,WUHU216HW,2013-05-04 18:23:00,
2013-05-04 14:24:00,55.1,51.2,29.80,WSW,248,0.4,2.2,87,0.18,,,1.08,WUHU216HW,2013-05-04 18:24:00,
2013-05-04 14:25:00,54.9,51.0,29.80,WSW,248,0.7,2.2,87,0.19,,,1.09,WUHU216HW,2013-05-04 18:25:00,
2013-05-04 14:26:00,54.9,51.0,29.80,WSW,248,2.2,2.2,87,0.17,,,1.09,WUHU216HW,2013-05-04 18:26:00,
2013-05-04 14:28:00,54.7,50.9,29.81,SW,225,1.8,2.2,87,0.18,,,1.10,WUHU216HW,2013-05-04 18:28:00,
2013-05-04 14:30:00,54.7,50.9,29.81,WSW,256,2.3,3.6,87,0.17,,,1.11,WUHU216HW,2013-05-04 18:30:00,
2013-05-04 14:32:00,54.5,50.8,29.80,SSW,203,3.4,3.6,87,0.17,,,1.11,WUHU216HW,2013-05-04 18:32:00,
2013-05-04 14:33:00,54.5,50.8,29.81,SSW,208,2.3,3.6,87,0.15,,,1.11,WUHU216HW,2013-05-04 18:33:00,
2013-05-04 14:34:00,54.4,50.6,29.80,SW,225,0.8,3.6,87,0.16,,,1.12,WUHU216HW,2013-05-04 18:34:00,
2013-05-04 14:36:00,54.4,50.6,29.81,SSW,203,2.2,3.6,87,0.15,,,1.13,WUHU216HW,2013-05-04 18:36:00,
2013-05-04 14:38:00,54.4,50.9,29.81,SSE,158,2.5,3.6,88,0.15,,,1.13,WUHU216HW,2013-05-04 18:38:00,
2013-05-04 14:39:00,54.4,50.9,29.81,South,177,1.8,3.4,88,0.15,,,1.14,WUHU216HW,2013-05-04 18:39:00,
2013-05-04 14:42:00,54.4,50.9,29.81,WSW,248,2.5,2.9,88,0.16,,,1.15,WUHU216HW,2013-05-04 18:42:00,
2013-05-04 14:43:00,54.4,50.9,29.81,WSW,249,1.4,2.9,88,0.14,,,1.15,WUHU216HW,2013-05-04 18:43:00,
2013-05-04 14:44:00,54.4,50.9,29.81,SSE,158,0.4,2.9,88,0.15,,,1.16,WUHU216HW,2013-05-04 18:44:00,
2013-05-04 14:45:00,54.4,50.9,29.81,SSW,203,2.9,2.9,88,0.15,,,1.16,WUHU216HW,2013-05-04 18:45:00,
2013-05-04 14:47:00,54.4,50.9,29.81,South,172,1.1,2.9,88,0.16,,,1.17,WUHU216HW,2013-05-04 18:47:00,
2013-05-04 14:48:00,54.4,50.9,29.81,South,172,1.1,2.9,88,0.16,,,1.17,WUHU216HW,2013-05-04 18:48:00,
2013-05-04 14:49:00,54.4,50.9,29.81,SSW,203,3.4,3.4,88,0.16,,,1.17,WUHU216HW,2013-05-04 18:49:00,
2013-05-04 14:50:00,54.4,50.9,29.81,SSW,197,2.3,3.4,88,0.16,,,1.17,WUHU216HW,2013-05-04 18:50:00,
2013-05-04 14:53:00,54.4,50.9,29.82,South,180,1.6,3.4,88,0.17,,,1.18,WUHU216HW,2013-05-04 18:53:00,
2013-05-04 14:54:00,54.4,50.9,29.82,SSE,158,3.1,3.4,88,0.17,,,1.18,WUHU216HW,2013-05-04 18:54:00,
2013-05-04 14:55:00,54.2,50.7,29.82,South,169,2.1,3.4,88,0.18,,,1.19,WUHU216HW,2013-05-04 18:55:00,
2013-05-04 14:56:00,54.2,50.7,29.82,West,270,2.2,3.4,88,0.18,,,1.19,WUHU216HW,2013-05-04 18:56:00,
2013-05-04 14:59:00,54.2,50.7,29.82,West,270,0.7,3.1,88,0.19,,,1.20,WUHU216HW,2013-05-04 18:59:00,
2013-05-04 15:00:00,54.2,50.7,29.82,West,262,0.6,3.1,88,0.19,,,1.20,WUHU216HW,2013-05-04 19:00:00,
2013-05-04 15:01:00,54.0,50.5,29.82,SSW,203,2.9,3.1,88,0.19,,,1.20,WUHU216HW,2013-05-04 19:01:00,
2013-05-04 15:02:00,54.0,50.5,29.81,SSE,150,0.3,3.1,88,0.18,,,1.21,WUHU216HW,2013-05-04 19:02:00,
2013-05-04 15:04:00,54.0,50.5,29.81,South,180,0.2,2.9,88,0.19,,,1.22,WUHU216HW,2013-05-04 19:04:00,
2013-05-04 15:06:00,54.0,50.5,29.81,SSE,158,0.0,2.9,88,0.18,,,1.22,WUHU216HW,2013-05-04 19:06:00,
2013-05-04 15:08:00,54.0,50.5,29.81,SSE,167,1.4,2.9,88,0.19,,,1.23,WUHU216HW,2013-05-04 19:08:00,
2013-05-04 15:09:00,54.0,50.5,29.81,SW,225,1.1,2.9,88,0.19,,,1.23,WUHU216HW,2013-05-04 19:09:00,
2013-05-04 15:10:00,54.0,50.5,29.81,SE,135,1.1,2.9,88,0.19,,,1.23,WUHU216HW,2013-05-04 19:10:00,
2013-05-04 15:11:00,53.8,50.3,29.81,SE,135,1.1,1.6,88,0.19,,,1.24,WUHU216HW,2013-05-04 19:11:00,
2013-05-04 15:12:00,53.8,50.3,29.80,SE,135,0.0,1.6,88,0.19,,,1.24,WUHU216HW,2013-05-04 19:12:00,
2013-05-04 15:13:00,53.8,50.3,29.80,SE,135,0.0,1.6,88,0.19,,,1.24,WUHU216HW,2013-05-04 19:13:00,
2013-05-04 15:15:00,53.8,50.3,29.79,SE,135,0.0,1.6,88,0.18,,,1.24,WUHU216HW,2013-05-04 19:15:00,
2013-05-04 15:17:00,53.6,50.1,29.79,SE,135,0.0,1.1,88,0.19,,,1.25,WUHU216HW,2013-05-04 19:17:00,
2013-05-04 15:18:00,53.6,50.1,29.79,ESE,113,0.0,1.1,88,0.19,,,1.26,WUHU216HW,2013-05-04 19:18:00,
2013-05-04 15:19:00,53.6,50.1,29.79,ESE,113,0.0,1.1,88,0.19,,,1.26,WUHU216HW,2013-05-04 19:19:00,
2013-05-04 15:20:00,53.6,50.1,29.79,ESE,113,0.0,0.0,88,0.19,,,1.26,WUHU216HW,2013-05-04 19:20:00,
2013-05-04 15:21:00,53.6,50.1,29.79,ESE,113,0.0,0.0,88,0.19,,,1.27,WUHU216HW,2013-05-04 19:21:00,
2013-05-04 15:22:00,53.6,50.1,29.78,NE,45,0.7,0.7,88,0.19,,,1.27,WUHU216HW,2013-05-04 19:22:00,
2013-05-04 15:23:00,53.6,50.1,29.78,NNE,23,1.1,1.1,88,0.19,,,1.27,WUHU216HW,2013-05-04 19:23:00,
2013-05-04 15:25:00,53.6,50.1,29.78,NNE,23,0.7,1.1,88,0.19,,,1.28,WUHU216HW,2013-05-04 19:25:00,
2013-05-04 15:26:00,53.5,50.0,29.78,NNE,23,0.7,1.1,88,0.19,,,1.29,WUHU216HW,2013-05-04 19:26:00,
2013-05-04 15:27:00,53.5,50.0,29.78,NNE,23,0.7,1.1,88,0.19,,,1.29,WUHU216HW,2013-05-04 19:27:00,
2013-05-04 15:28:00,53.5,50.0,29.78,NNE,23,0.9,1.1,88,0.19,,,1.30,WUHU216HW,2013-05-04 19:28:00,
2013-05-04 15:29:00,53.5,50.0,29.78,NNE,23,0.9,1.1,88,0.19,,,1.30,WUHU216HW,2013-05-04 19:29:00,
2013-05-04 15:30:00,53.3,49.8,29.78,NE,45,0.9,1.1,88,0.20,,,1.31,WUHU216HW,2013-05-04 19:30:00,
2013-05-04 15:33:00,53.3,49.8,29.78,NE,45,0.0,0.9,88,0.21,,,1.33,WUHU216HW,2013-05-04 19:33:00,
2013-05-04 15:35:00,53.3,49.8,29.78,NE,45,0.0,0.9,88,0.22,,,1.35,WUHU216HW,2013-05-04 19:35:00,
2013-05-04 15:36:00,53.3,49.8,29.78,WNW,293,1.1,1.1,88,0.23,,,1.36,WUHU216HW,2013-05-04 19:36:00,
2013-05-04 15:38:00,53.3,50.1,29.78,WNW,293,1.1,1.3,89,0.23,,,1.37,WUHU216HW,2013-05-04 19:38:00,
2013-05-04 15:39:00,53.3,50.1,29.78,WNW,293,0.6,1.3,89,0.24,,,1.38,WUHU216HW,2013-05-04 19:39:00,
2013-05-04 15:41:00,53.3,50.1,29.77,NNW,338,0.4,1.3,89,0.24,,,1.39,WUHU216HW,2013-05-04 19:41:00,
2013-05-04 15:44:00,53.3,50.1,29.76,NNW,338,0.7,1.3,89,0.24,,,1.40,WUHU216HW,2013-05-04 19:44:00,
2013-05-04 15:45:00,53.1,50.0,29.76,NNW,338,0.4,1.3,89,0.25,,,1.41,WUHU216HW,2013-05-04 19:45:00,
2013-05-04 15:46:00,53.3,50.1,29.76,WNW,293,1.3,1.3,89,0.24,,,1.41,WUHU216HW,2013-05-04 19:46:00,
2013-05-04 15:47:00,53.3,50.1,29.77,WSW,248,1.6,1.6,89,0.25,,,1.42,WUHU216HW,2013-05-04 19:47:00,
2013-05-04 15:49:00,53.3,50.1,29.78,SW,225,0.9,1.6,89,0.25,,,1.42,WUHU216HW,2013-05-04 19:49:00,
2013-05-04 15:50:00,53.3,50.1,29.79,SW,225,0.7,1.6,89,0.25,,,1.43,WUHU216HW,2013-05-04 19:50:00,
2013-05-04 15:51:00,53.3,50.1,29.79,SW,225,0.0,1.6,89,0.25,,,1.43,WUHU216HW,2013-05-04 19:51:00,
2013-05-04 15:52:00,53.3,50.1,29.79,SW,225,0.0,1.6,89,0.25,,,1.43,WUHU216HW,2013-05-04 19:52:00,
2013-05-04 15:55:00,53.5,50.3,29.79,East,90,1.1,1.6,89,0.25,,,1.44,WUHU216HW,2013-05-04 19:55:00,
2013-05-04 15:56:00,53.5,50.3,29.79,ESE,113,1.1,1.6,89,0.25,,,1.44,WUHU216HW,2013-05-04 19:56:00,
2013-05-04 15:57:00,53.5,50.3,29.79,ESE,113,0.7,1.1,89,0.24,,,1.44,WUHU216HW,2013-05-04 19:57:00,
2013-05-04 15:58:00,53.5,50.3,29.79,ENE,68,0.7,1.1,89,0.24,,,1.44,WUHU216HW,2013-05-04 19:58:00,
2013-05-04 16:01:00,53.5,50.3,29.79,East,90,0.9,1.1,89,0.23,,,1.44,WUHU216HW,2013-05-04 20:01:00,
2013-05-04 16:03:00,53.6,50.5,29.79,ESE,118,0.8,1.1,89,0.23,,,1.45,WUHU216HW,2013-05-04 20:03:00,
2013-05-04 16:06:00,54.0,50.9,29.79,SW,225,1.3,1.3,89,0.22,,,1.45,WUHU216HW,2013-05-04 20:06:00,
2013-05-04 16:09:00,54.2,51.0,29.79,SW,225,0.4,1.3,89,0.21,,,1.45,WUHU216HW,2013-05-04 20:09:00,
2013-05-04 16:10:00,54.2,51.0,29.79,SW,225,0.0,1.3,89,0.22,,,1.46,WUHU216HW,2013-05-04 20:10:00,
2013-05-04 16:12:00,54.2,51.0,29.79,ESE,113,0.4,1.3,89,0.22,,,1.46,WUHU216HW,2013-05-04 20:12:00,
2013-05-04 16:14:00,54.2,51.0,29.79,SE,135,0.9,1.3,89,0.21,,,1.46,WUHU216HW,2013-05-04 20:14:00,
2013-05-04 16:16:00,54.2,51.0,29.79,ESE,113,2.5,2.5,89,0.20,,,1.46,WUHU216HW,2013-05-04 20:16:00,
2013-05-04 16:18:00,54.2,51.0,29.79,SE,135,2.5,2.5,89,0.22,,,1.48,WUHU216HW,2013-05-04 20:18:00,
2013-05-04 16:19:00,54.0,50.9,29.79,SE,126,2.0,2.5,89,0.21,,,1.48,WUHU216HW,2013-05-04 20:19:00,
2013-05-04 16:20:00,54.0,50.9,29.79,ESE,113,1.6,2.5,89,0.21,,,1.48,WUHU216HW,2013-05-04 20:20:00,
2013-05-04 16:22:00,54.0,50.9,29.78,East,90,0.8,2.5,89,0.20,,,1.48,WUHU216HW,2013-05-04 20:22:00,
2013-05-04 16:23:00,53.8,50.7,29.78,NE,45,1.8,2.5,89,0.21,,,1.49,WUHU216HW,2013-05-04 20:23:00,
2013-05-04 16:24:00,53.8,50.7,29.78,NNE,23,1.1,2.5,89,0.21,,,1.50,WUHU216HW,2013-05-04 20:24:00,
2013-05-04 16:25:00,53.8,50.7,29.78,NNE,23,1.1,2.5,89,0.21,,,1.50,WUHU216HW,2013-05-04 20:25:00,
2013-05-04 16:27:00,53.6,50.1,29.77,NE,45,0.7,2.5,88,0.22,,,1.52,WUHU216HW,2013-05-04 20:27:00,
2013-05-04 16:28:00,53.6,50.1,29.77,NE,45,0.6,1.8,88,0.22,,,1.53,WUHU216HW,2013-05-04 20:28:00,
2013-05-04 16:30:00,53.6,50.5,29.77,NNE,23,0.4,1.8,89,0.23,,,1.55,WUHU216HW,2013-05-04 20:30:00,
2013-05-04 16:31:00,53.6,50.5,29.78,ESE,113,0.3,1.8,89,0.23,,,1.57,WUHU216HW,2013-05-04 20:31:00,
2013-05-04 16:33:00,53.5,50.3,29.78,SE,135,0.9,1.1,89,0.22,,,1.57,WUHU216HW,2013-05-04 20:33:00,
2013-05-04 16:35:00,53.6,50.5,29.78,SSW,203,0.7,0.9,89,0.21,,,1.57,WUHU216HW,2013-05-04 20:35:00,
2013-05-04 16:36:00,53.6,50.5,29.78,SSW,203,0.0,0.9,89,0.20,,,1.57,WUHU216HW,2013-05-04 20:36:00,
2013-05-04 16:38:00,53.6,50.5,29.78,SSW,203,0.0,0.9,89,0.21,,,1.59,WUHU216HW,2013-05-04 20:38:00,
2013-05-04 16:39:00,53.5,50.3,29.78,NE,45,1.1,1.1,89,0.20,,,1.59,WUHU216HW,2013-05-04 20:39:00,
2013-05-04 16:41:00,53.5,50.3,29.77,NNE,23,1.3,1.8,89,0.22,,,1.62,WUHU216HW,2013-05-04 20:41:00,
2013-05-04 16:44:00,53.3,50.1,29.76,NE,45,1.1,1.8,89,0.23,,,1.64,WUHU216HW,2013-05-04 20:44:00,
2013-05-04 16:45:00,53.3,50.1,29.76,NE,45,0.6,1.8,89,0.22,,,1.64,WUHU216HW,2013-05-04 20:45:00,
2013-05-04 16:46:00,53.3,50.1,29.77,ENE,68,0.0,1.8,89,0.24,,,1.66,WUHU216HW,2013-05-04 20:46:00,
2013-05-04 16:48:00,53.3,50.1,29.77,ESE,113,1.1,1.8,89,0.23,,,1.66,WUHU216HW,2013-05-04 20:48:00,
2013-05-04 16:49:00,53.5,50.3,29.77,SE,135,1.1,1.8,89,0.23,,,1.66,WUHU216HW,2013-05-04 20:49:00,
2013-05-04 16:50:00,53.5,50.3,29.77,ESE,113,1.3,1.6,89,0.23,,,1.66,WUHU216HW,2013-05-04 20:50:00,
2013-05-04 16:53:00,53.8,50.7,29.78,South,180,1.6,1.6,89,0.23,,,1.67,WUHU216HW,2013-05-04 20:53:00,
2013-05-04 16:54:00,53.8,50.7,29.78,South,180,1.6,1.6,89,0.23,,,1.67,WUHU216HW,2013-05-04 20:54:00,
2013-05-04 16:55:00,53.8,50.7,29.78,South,180,1.1,1.6,89,0.23,,,1.67,WUHU216HW,2013-05-04 20:55:00,
2013-05-04 16:56:00,53.8,50.7,29.78,South,180,1.1,1.6,89,0.23,,,1.67,WUHU216HW,2013-05-04 20:56:00,
2013-05-04 16:59:00,53.8,50.7,29.78,East,90,0.9,1.6,89,0.23,,,1.67,WUHU216HW,2013-05-04 20:59:00,
2013-05-04 17:00:00,54.0,50.9,29.78,ESE,113,2.7,2.7,89,0.23,,,1.67,WUHU216HW,2013-05-04 21:00:00,
2013-05-04 17:01:00,54.0,50.9,29.78,East,83,2.5,2.7,89,0.23,,,1.67,WUHU216HW,2013-05-04 21:01:00,
2013-05-04 17:02:00,53.8,50.7,29.77,NE,45,1.7,2.7,89,0.22,,,1.67,WUHU216HW,2013-05-04 21:02:00,
2013-05-04 17:04:00,53.8,50.7,29.77,NNE,23,2.5,2.7,89,0.23,,,1.68,WUHU216HW,2013-05-04 21:04:00,
2013-05-04 17:06:00,53.8,50.7,29.78,ENE,68,1.1,2.7,89,0.23,,,1.68,WUHU216HW,2013-05-04 21:06:00,
2013-05-04 17:07:00,53.8,50.7,29.78,NE,45,1.3,2.7,89,0.23,,,1.68,WUHU216HW,2013-05-04 21:07:00,
2013-05-04 17:08:00,54.0,50.9,29.78,ENE,60,1.0,2.7,89,0.23,,,1.68,WUHU216HW,2013-05-04 21:08:00,
2013-05-04 17:09:00,54.0,50.9,29.78,East,90,0.0,2.5,89,0.23,,,1.69,WUHU216HW,2013-05-04 21:09:00,
2013-05-04 17:12:00,54.2,51.0,29.78,East,90,1.3,2.5,89,0.23,,,1.69,WUHU216HW,2013-05-04 21:12:00,
2013-05-04 17:13:00,54.2,51.0,29.78,East,90,1.2,2.5,89,0.24,,,1.70,WUHU216HW,2013-05-04 21:13:00,
2013-05-04 17:15:00,54.4,51.2,29.78,ENE,68,0.7,1.3,89,0.25,,,1.71,WUHU216HW,2013-05-04 21:15:00,
2013-05-04 17:17:00,54.4,51.2,29.77,NE,45,0.2,1.3,89,0.23,,,1.71,WUHU216HW,2013-05-04 21:17:00,
2013-05-04 17:18:00,54.4,51.2,29.77,NE,45,0.2,1.3,89,0.24,,,1.72,WUHU216HW,2013-05-04 21:18:00,
2013-05-04 17:19:00,54.4,50.9,29.77,NE,45,0.0,1.3,88,0.24,,,1.72,WUHU216HW,2013-05-04 21:19:00,
2013-05-04 17:20:00,54.4,50.9,29.77,NE,45,0.0,1.3,88,0.24,,,1.72,WUHU216HW,2013-05-04 21:20:00,
2013-05-04 17:21:00,54.4,50.9,29.77,NE,45,0.0,1.1,88,0.24,,,1.73,WUHU216HW,2013-05-04 21:21:00,
2013-05-04 17:23:00,54.4,50.9,29.77,NNE,23,1.1,1.1,88,0.24,,,1.73,WUHU216HW,2013-05-04 21:23:00,
2013-05-04 17:24:00,54.4,50.9,29.77,NNE,23,0.7,1.1,88,0.24,,,1.74,WUHU216HW,2013-05-04 21:24:00,
2013-05-04 17:26:00,54.4,50.9,29.78,NNE,23,0.0,1.1,88,0.23,,,1.75,WUHU216HW,2013-05-04 21:26:00,
2013-05-04 17:27:00,54.5,51.0,29.77,NNE,23,0.0,1.1,88,0.22,,,1.75,WUHU216HW,2013-05-04 21:27:00,
2013-05-04 17:29:00,54.5,51.0,29.77,NNE,23,0.0,1.1,88,0.20,,,1.75,WUHU216HW,2013-05-04 21:29:00,
2013-05-04 17:32:00,54.7,51.2,29.77,NNE,23,0.0,1.1,88,0.19,,,1.76,WUHU216HW,2013-05-04 21:32:00,
2013-05-04 17:34:00,54.7,51.2,29.77,ENE,68,0.7,0.7,88,0.19,,,1.76,WUHU216HW,2013-05-04 21:34:00,
2013-05-04 17:35:00,54.9,51.4,29.77,ENE,68,0.4,0.7,88,0.18,,,1.77,WUHU216HW,2013-05-04 21:35:00,
2013-05-04 17:37:00,54.9,51.4,29.77,ENE,68,0.2,0.7,88,0.18,,,1.77,WUHU216HW,2013-05-04 21:37:00,
2013-05-04 17:38:00,54.9,51.4,29.77,ENE,68,0.4,0.7,88,0.18,,,1.77,WUHU216HW,2013-05-04 21:38:00,
2013-05-04 17:39:00,55.1,51.6,29.77,ESE,113,1.6,1.6,88,0.15,,,1.77,WUHU216HW,2013-05-04 21:39:00,
2013-05-04 17:40:00,55.1,51.6,29.77,ESE,113,1.6,1.6,88,0.15,,,1.77,WUHU216HW,2013-05-04 21:40:00,
2013-05-04 17:41:00,55.1,51.6,29.77,East,90,1.8,1.8,88,0.15,,,1.77,WUHU216HW,2013-05-04 21:41:00,
2013-05-04 17:42:00,55.1,51.6,29.78,ESE,113,1.4,1.8,88,0.13,,,1.77,WUHU216HW,2013-05-04 21:42:00,
2013-05-04 17:43:00,55.1,51.6,29.78,ESE,113,1.4,1.8,88,0.13,,,1.77,WUHU216HW,2013-05-04 21:43:00,
2013-05-04 17:45:00,55.1,51.6,29.78,ENE,68,0.9,1.8,88,0.11,,,1.77,WUHU216HW,2013-05-04 21:45:00,
2013-05-04 17:46:00,55.1,51.6,29.77,ENE,68,0.6,1.8,88,0.12,,,1.78,WUHU216HW,2013-05-04 21:46:00,
2013-05-04 17:48:00,54.9,51.4,29.77,ENE,68,0.4,1.8,88,0.12,,,1.78,WUHU216HW,2013-05-04 21:48:00,
2013-05-04 17:49:00,54.9,51.4,29.77,East,90,1.1,1.8,88,0.12,,,1.78,WUHU216HW,2013-05-04 21:49:00,
2013-05-04 17:50:00,54.7,51.2,29.77,ESE,113,1.3,1.8,88,0.12,,,1.78,WUHU216HW,2013-05-04 21:50:00,
2013-05-04 17:51:00,54.7,51.2,29.77,ESE,122,1.1,1.6,88,0.11,,,1.78,WUHU216HW,2013-05-04 21:51:00,
2013-05-04 17:53:00,54.7,51.2,29.77,East,90,1.1,1.3,88,0.11,,,1.78,WUHU216HW,2013-05-04 21:53:00,
2013-05-04 17:54:00,54.7,51.2,29.77,East,90,0.9,1.3,88,0.11,,,1.78,WUHU216HW,2013-05-04 21:54:00,
2013-05-04 17:56:00,54.7,51.2,29.77,East,90,1.3,1.3,88,0.11,,,1.78,WUHU216HW,2013-05-04 21:56:00,
2013-05-04 17:58:00,54.7,51.2,29.77,ESE,104,1.5,1.8,88,0.11,,,1.78,WUHU216HW,2013-05-04 21:58:00,
2013-05-04 17:59:00,54.9,51.4,29.77,ESE,113,1.1,1.8,88,0.11,,,1.78,WUHU216HW,2013-05-04 21:59:00,
2013-05-04 18:00:00,54.9,51.4,29.77,East,101,0.8,1.8,88,0.12,,,1.79,WUHU216HW,2013-05-04 22:00:00,
2013-05-04 18:01:00,55.1,51.6,29.77,ENE,68,0.4,1.8,88,0.12,,,1.79,WUHU216HW,2013-05-04 22:01:00,
2013-05-04 18:03:00,55.1,51.6,29.77,North,6,1.7,2.5,88,0.11,,,1.79,WUHU216HW,2013-05-04 22:03:00,
2013-05-04 18:04:00,55.1,51.6,29.77,North,6,1.7,2.5,88,0.11,,,1.79,WUHU216HW,2013-05-04 22:04:00,
2013-05-04 18:05:00,55.3,51.8,29.77,ESE,113,2.0,2.5,88,0.11,,,1.79,WUHU216HW,2013-05-04 22:05:00,
2013-05-04 18:06:00,55.3,51.8,29.77,ESE,113,2.0,2.5,88,0.11,,,1.79,WUHU216HW,2013-05-04 22:06:00,
2013-05-04 18:07:00,55.3,51.8,29.77,ESE,113,2.0,2.5,88,0.10,,,1.79,WUHU216HW,2013-05-04 22:07:00,
2013-05-04 18:08:00,55.4,51.9,29.77,East,90,2.5,2.5,88,0.11,,,1.80,WUHU216HW,2013-05-04 22:08:00,
2013-05-04 18:10:00,55.4,51.9,29.77,East,81,2.2,2.5,88,0.11,,,1.80,WUHU216HW,2013-05-04 22:10:00,
2013-05-04 18:12:00,55.3,51.4,29.76,ENE,68,0.3,2.5,87,0.10,,,1.80,WUHU216HW,2013-05-04 22:12:00,
2013-05-04 18:14:00,55.4,51.6,29.76,ENE,68,0.0,2.5,87,0.09,,,1.80,WUHU216HW,2013-05-04 22:14:00,
2013-05-04 18:15:00,55.4,51.6,29.76,ENE,68,0.0,2.5,87,0.09,,,1.80,WUHU216HW,2013-05-04 22:15:00,
2013-05-04 18:16:00,55.4,51.6,29.76,NNE,30,1.7,2.5,87,0.08,,,1.80,WUHU216HW,2013-05-04 22:16:00,
2013-05-04 18:17:00,55.4,51.6,29.76,NNE,30,1.7,2.5,87,0.08,,,1.80,WUHU216HW,2013-05-04 22:17:00,
2013-05-04 18:18:00,55.4,51.6,29.76,ESE,113,1.3,2.5,87,0.09,,,1.81,WUHU216HW,2013-05-04 22:18:00,
2013-05-04 18:20:00,55.4,51.6,29.76,ESE,113,1.3,2.2,87,0.08,,,1.81,WUHU216HW,2013-05-04 22:20:00,
2013-05-04 18:21:00,55.4,51.6,29.76,SE,135,1.3,2.2,87,0.08,,,1.81,WUHU216HW,2013-05-04 22:21:00,
2013-05-04 18:22:00,55.4,51.6,29.77,SE,135,1.3,2.2,87,0.07,,,1.81,WUHU216HW,2013-05-04 22:22:00,
2013-05-04 18:24:00,55.4,51.6,29.77,SSW,203,0.4,2.2,87,0.06,,,1.81,WUHU216HW,2013-05-04 22:24:00,
2013-05-04 18:25:00,55.4,51.6,29.77,SSW,203,0.2,2.2,87,0.06,,,1.81,WUHU216HW,2013-05-04 22:25:00,
2013-05-04 18:26:00,55.4,51.6,29.77,SSW,203,0.2,1.3,87,0.06,,,1.81,WUHU216HW,2013-05-04 22:26:00,
2013-05-04 18:28:00,55.4,51.6,29.77,SSW,203,0.0,1.3,87,0.06,,,1.81,WUHU216HW,2013-05-04 22:28:00,
2013-05-04 18:29:00,55.4,51.6,29.77,SSW,203,0.0,1.3,87,0.05,,,1.81,WUHU216HW,2013-05-04 22:29:00,
2013-05-04 18:30:00,55.4,51.6,29.77,SSW,203,0.0,1.3,87,0.05,,,1.81,WUHU216HW,2013-05-04 22:30:00,
2013-05-04 18:31:00,55.6,51.8,29.77,SSW,203,0.0,1.3,87,0.05,,,1.81,WUHU216HW,2013-05-04 22:31:00,
2013-05-04 18:33:00,55.4,51.6,29.77,SSW,203,0.0,0.2,87,0.04,,,1.81,WUHU216HW,2013-05-04 22:33:00,
2013-05-04 18:36:00,55.4,51.6,29.77,South,180,0.0,0.0,87,0.04,,,1.81,WUHU216HW,2013-05-04 22:36:00,
2013-05-04 18:37:00,55.4,51.6,29.77,ESE,113,1.1,1.1,87,0.04,,,1.81,WUHU216HW,2013-05-04 22:37:00,
2013-05-04 18:38:00,55.3,51.4,29.77,ENE,68,1.1,1.1,87,0.04,,,1.81,WUHU216HW,2013-05-04 22:38:00,
2013-05-04 18:41:00,55.1,51.2,29.77,ENE,68,1.4,1.8,87,0.04,,,1.81,WUHU216HW,2013-05-04 22:41:00,
2013-05-04 18:42:00,54.9,51.0,29.77,ENE,68,0.8,1.8,87,0.04,,,1.81,WUHU216HW,2013-05-04 22:42:00,
2013-05-04 18:43:00,54.7,50.9,29.77,ENE,68,0.8,1.8,87,0.04,,,1.81,WUHU216HW,2013-05-04 22:43:00,
2013-05-04 18:47:00,54.7,50.9,29.77,NNE,23,1.8,1.8,87,0.03,,,1.81,WUHU216HW,2013-05-04 22:47:00,
2013-05-04 18:48:00,54.7,50.9,29.76,NNE,23,1.1,1.8,87,0.04,,,1.82,WUHU216HW,2013-05-04 22:48:00,
2013-05-04 18:51:00,54.5,51.0,29.76,North,0,1.6,1.8,88,0.04,,,1.82,WUHU216HW,2013-05-04 22:51:00,
2013-05-04 18:52:00,54.5,51.0,29.76,North,0,1.6,1.8,88,0.04,,,1.82,WUHU216HW,2013-05-04 22:52:00,
2013-05-04 18:53:00,54.5,51.0,29.76,North,0,2.0,2.0,88,0.04,,,1.82,WUHU216HW,2013-05-04 22:53:00,
2013-05-04 18:54:00,54.5,51.0,29.76,NNE,21,1.9,2.0,88,0.04,,,1.82,WUHU216HW,2013-05-04 22:54:00,
2013-05-04 18:57:00,54.5,51.0,29.76,North,5,2.3,3.4,88,0.04,,,1.82,WUHU216HW,2013-05-04 22:57:00,
2013-05-04 18:58:00,54.5,51.0,29.76,North,5,2.3,3.4,88,0.04,,,1.82,WUHU216HW,2013-05-04 22:58:00,
2013-05-04 19:00:00,54.4,50.9,29.76,NNE,12,1.2,3.4,88,0.03,,,1.82,WUHU216HW,2013-05-04 23:00:00,
2013-05-04 19:03:00,54.4,50.9,29.76,North,0,0.8,3.4,88,0.04,,,1.83,WUHU216HW,2013-05-04 23:03:00,
2013-05-04 19:04:00,54.4,50.9,29.76,North,0,0.4,3.4,88,0.04,,,1.83,WUHU216HW,2013-05-04 23:04:00,
2013-05-04 19:05:00,54.4,50.9,29.76,North,0,0.7,3.4,88,0.04,,,1.83,WUHU216HW,2013-05-04 23:05:00,
2013-05-04 19:09:00,54.4,51.2,29.76,North,0,0.8,1.3,89,0.03,,,1.83,WUHU216HW,2013-05-04 23:09:00,
2013-05-04 19:10:00,54.4,51.2,29.76,North,0,0.8,1.1,89,0.03,,,1.83,WUHU216HW,2013-05-04 23:10:00,
2013-05-04 19:11:00,54.4,51.2,29.76,North,0,0.8,1.1,89,0.03,,,1.83,WUHU216HW,2013-05-04 23:11:00,
2013-05-04 19:14:00,54.2,51.0,29.76,North,0,0.0,1.1,89,0.03,,,1.83,WUHU216HW,2013-05-04 23:14:00,
2013-05-04 19:15:00,54.4,51.2,29.76,North,0,0.0,1.1,89,0.03,,,1.83,WUHU216HW,2013-05-04 23:15:00,
2013-05-04 19:17:00,54.4,51.2,29.76,North,0,0.0,1.1,89,0.02,,,1.83,WUHU216HW,2013-05-04 23:17:00,
2013-05-04 19:19:00,54.4,51.2,29.76,North,0,0.2,1.1,89,0.02,,,1.83,WUHU216HW,2013-05-04 23:19:00,
2013-05-04 19:21:00,54.4,51.2,29.76,North,0,0.2,0.2,89,0.02,,,1.83,WUHU216HW,2013-05-04 23:21:00,
2013-05-04 19:22:00,54.4,51.2,29.76,North,0,0.2,0.2,89,0.02,,,1.83,WUHU216HW,2013-05-04 23:22:00,
2013-05-04 19:23:00,54.4,51.2,29.76,North,0,0.0,0.2,89,0.02,,,1.83,WUHU216HW,2013-05-04 23:23:00,
2013-05-04 19:25:00,54.4,51.2,29.77,North,0,0.0,0.2,89,0.03,,,1.84,WUHU216HW,2013-05-04 23:25:00,
2013-05-04 19:26:00,54.4,51.2,29.77,North,0,0.0,0.2,89,0.03,,,1.84,WUHU216HW,2013-05-04 23:26:00,
2013-05-04 19:28:00,54.2,51.0,29.76,North,0,0.0,0.2,89,0.03,,,1.84,WUHU216HW,2013-05-04 23:28:00,
2013-05-04 19:30:00,54.2,51.0,29.76,North,0,0.7,0.7,89,0.04,,,1.85,WUHU216HW,2013-05-04 23:30:00,
2013-05-04 19:31:00,54.2,51.0,29.76,North,0,1.6,1.6,89,0.04,,,1.85,WUHU216HW,2013-05-04 23:31:00,
2013-05-04 19:34:00,54.0,50.9,29.76,NNW,338,1.0,1.6,89,0.05,,,1.86,WUHU216HW,2013-05-04 23:34:00,
2013-05-04 19:36:00,54.0,50.9,29.76,NNW,338,0.2,1.6,89,0.05,,,1.86,WUHU216HW,2013-05-04 23:36:00,
2013-05-04 19:37:00,54.0,50.9,29.76,NNW,338,0.2,1.6,89,0.05,,,1.86,WUHU216HW,2013-05-04 23:37:00,
2013-05-04 19:39:00,53.8,50.7,29.76,North,0,1.1,1.6,89,0.06,,,1.87,WUHU216HW,2013-05-04 23:39:00,
2013-05-04 19:41:00,53.8,50.7,29.77,North,0,0.0,1.6,89,0.06,,,1.87,WUHU216HW,2013-05-04 23:41:00,
2013-05-04 19:42:00,53.8,50.7,29.77,North,0,0.0,1.6,89,0.06,,,1.87,WUHU216HW,2013-05-04 23:42:00,
2013-05-04 19:43:00,53.8,50.7,29.77,North,0,0.0,1.1,89,0.06,,,1.87,WUHU216HW,2013-05-04 23:43:00,
2013-05-04 19:45:00,53.8,50.7,29.77,NNW,338,1.0,1.3,89,0.06,,,1.88,WUHU216HW,2013-05-04 23:45:00,
2013-05-04 19:46:00,53.8,50.7,29.76,NNW,338,0.7,1.3,89,0.06,,,1.88,WUHU216HW,2013-05-04 23:46:00,
2013-05-04 19:47:00,54.0,50.9,29.76,NNW,338,0.7,1.3,89,0.06,,,1.88,WUHU216HW,2013-05-04 23:47:00,
2013-05-04 19:48:00,53.8,50.7,29.76,NNW,338,0.0,1.3,89,0.06,,,1.88,WUHU216HW,2013-05-04 23:48:00,
2013-05-04 19:49:00,53.8,50.7,29.76,NNW,338,0.0,1.3,89,0.07,,,1.89,WUHU216HW,2013-05-04 23:49:00,
2013-05-04 19:51:00,53.8,50.7,29.77,NNW,338,0.0,1.3,89,0.07,,,1.89,WUHU216HW,2013-05-04 23:51:00,
2013-05-04 19:52:00,53.8,50.7,29.77,NNW,338,0.2,1.3,89,0.07,,,1.89,WUHU216HW,2013-05-04 23:52:00,
2013-05-04 19:53:00,53.6,50.5,29.77,NNW,338,0.7,1.3,89,0.08,,,1.90,WUHU216HW,2013-05-04 23:53:00,
2013-05-04 19:54:00,53.8,50.7,29.77,NE,45,1.8,1.8,89,0.08,,,1.90,WUHU216HW,2013-05-04 23:54:00,
2013-05-04 19:55:00,53.8,50.7,29.77,NE,45,1.8,1.8,89,0.08,,,1.90,WUHU216HW,2013-05-04 23:55:00,
2013-05-04 19:58:00,53.6,50.5,29.76,NNE,23,0.8,1.8,89,0.09,,,1.91,WUHU216HW,2013-05-04 23:58:00,
2013-05-04 20:00:00,53.6,50.5,29.76,NNE,23,0.0,1.8,89,0.10,,,1.93,WUHU216HW,2013-05-05 00:00:00,
2013-05-04 20:01:00,53.6,50.5,29.76,NNW,338,0.4,1.8,89,0.10,,,1.93,WUHU216HW,2013-05-05 00:01:00,
2013-05-04 20:03:00,53.6,50.5,29.76,NNW,338,0.3,1.8,89,0.10,,,1.93,WUHU216HW,2013-05-05 00:03:00,
2013-05-04 20:05:00,53.6,50.5,29.76,NNW,338,0.4,0.9,89,0.12,,,1.95,WUHU216HW,2013-05-05 00:05:00,
2013-05-04 20:06:00,53.8,50.7,29.76,NNW,338,0.4,0.9,89,0.12,,,1.95,WUHU216HW,2013-05-05 00:06:00,
2013-05-04 20:07:00,53.6,50.5,29.76,NNE,23,0.4,0.7,89,0.12,,,1.95,WUHU216HW,2013-05-05 00:07:00,
2013-05-04 20:09:00,53.6,50.5,29.76,North,0,1.1,1.1,89,0.12,,,1.95,WUHU216HW,2013-05-05 00:09:00,
2013-05-04 20:10:00,53.6,50.5,29.76,North,0,0.8,1.1,89,0.13,,,1.96,WUHU216HW,2013-05-05 00:10:00,
2013-05-04 20:11:00,53.6,50.5,29.76,NNW,338,1.6,1.6,89,0.13,,,1.96,WUHU216HW,2013-05-05 00:11:00,
2013-05-04 20:12:00,53.6,50.5,29.76,NNW,347,1.4,1.6,89,0.14,,,1.97,WUHU216HW,2013-05-05 00:12:00,
2013-05-04 20:14:00,53.5,50.3,29.76,North,0,0.2,1.6,89,0.14,,,1.97,WUHU216HW,2013-05-05 00:14:00,
2013-05-04 20:15:00,53.5,50.6,29.76,North,0,0.7,1.6,90,0.15,,,1.98,WUHU216HW,2013-05-05 00:15:00,
2013-05-04 20:16:00,53.5,50.6,29.76,North,0,0.2,1.6,90,0.15,,,1.98,WUHU216HW,2013-05-05 00:16:00,
2013-05-04 20:18:00,53.5,50.6,29.76,NNE,23,1.8,1.8,90,0.16,,,1.99,WUHU216HW,2013-05-05 00:18:00,
2013-05-04 20:20:00,53.3,50.4,29.76,North,0,2.2,2.5,90,0.16,,,1.99,WUHU216HW,2013-05-05 00:20:00,
2013-05-04 20:21:00,53.3,50.4,29.76,North,351,1.5,2.5,90,0.16,,,1.99,WUHU216HW,2013-05-05 00:21:00,
2013-05-04 20:22:00,53.3,50.4,29.76,NNW,343,0.8,2.5,90,0.16,,,1.99,WUHU216HW,2013-05-05 00:22:00,
2013-05-04 20:23:00,53.3,50.4,29.76,North,0,0.4,2.5,90,0.16,,,2.00,WUHU216HW,2013-05-05 00:23:00,
2013-05-04 20:25:00,53.3,50.4,29.76,NNW,338,1.3,2.5,90,0.16,,,2.00,WUHU216HW,2013-05-05 00:25:00,
2013-05-04 20:26:00,53.3,50.4,29.76,NNW,338,1.0,2.5,90,0.16,,,2.00,WUHU216HW,2013-05-05 00:26:00,
2013-05-04 20:27:00,53.3,50.4,29.76,NNW,338,0.4,2.5,90,0.15,,,2.00,WUHU216HW,2013-05-05 00:27:00,
2013-05-04 20:29:00,53.3,50.4,29.76,NNW,338,0.0,1.8,90,0.15,,,2.00,WUHU216HW,2013-05-05 00:29:00,
2013-05-04 20:30:00,53.3,50.4,29.76,North,0,0.0,1.3,90,0.15,,,2.00,WUHU216HW,2013-05-05 00:30:00,
2013-05-04 20:31:00,53.3,50.4,29.76,North,0,0.0,1.3,90,0.14,,,2.00,WUHU216HW,2013-05-05 00:31:00,
2013-05-04 20:33:00,53.1,50.2,29.76,North,0,0.0,1.3,90,0.14,,,2.00,WUHU216HW,2013-05-05 00:33:00,
2013-05-04 20:34:00,53.1,50.2,29.76,North,0,0.0,1.3,90,0.14,,,2.00,WUHU216HW,2013-05-05 00:34:00,
2013-05-04 20:36:00,53.3,50.4,29.76,North,0,0.4,0.4,90,0.13,,,2.00,WUHU216HW,2013-05-05 00:36:00,
2013-05-04 20:38:00,53.1,50.2,29.77,North,0,0.0,0.4,90,0.13,,,2.00,WUHU216HW,2013-05-05 00:38:00,
2013-05-04 20:39:00,53.1,50.2,29.77,North,0,0.0,0.4,90,0.13,,,2.00,WUHU216HW,2013-05-05 00:39:00,
2013-05-04 20:40:00,53.1,50.2,29.76,NW,315,0.0,0.4,90,0.14,,,2.01,WUHU216HW,2013-05-05 00:40:00,
2013-05-04 20:42:00,53.1,50.2,29.76,NW,315,0.0,0.4,90,0.13,,,2.01,WUHU216HW,2013-05-05 00:42:00,
2013-05-04 20:44:00,53.1,50.2,29.77,North,0,0.2,0.4,90,0.13,,,2.01,WUHU216HW,2013-05-05 00:44:00,
2013-05-04 20:45:00,53.1,50.2,29.77,North,0,0.0,0.4,90,0.13,,,2.01,WUHU216HW,2013-05-05 00:45:00,
2013-05-04 20:46:00,53.1,50.2,29.77,North,0,0.0,0.4,90,0.13,,,2.01,WUHU216HW,2013-05-05 00:46:00,
2013-05-04 20:47:00,53.1,50.2,29.76,North,0,0.0,0.2,90,0.12,,,2.01,WUHU216HW,2013-05-05 00:47:00,
2013-05-04 20:50:00,53.1,50.2,29.76,North,0,0.0,0.2,90,0.13,,,2.02,WUHU216HW,2013-05-05 00:50:00,
2013-05-04 20:51:00,53.1,50.2,29.76,North,0,0.0,0.2,90,0.13,,,2.03,WUHU216HW,2013-05-05 00:51:00,
2013-05-04 20:52:00,53.1,50.2,29.76,North,0,0.0,0.2,90,0.13,,,2.03,WUHU216HW,2013-05-05 00:52:00,
2013-05-04 20:56:00,53.1,50.2,29.76,North,0,0.0,0.7,90,0.14,,,2.06,WUHU216HW,2013-05-05 00:56:00,
2013-05-04 20:57:00,53.1,50.2,29.76,North,0,0.0,0.7,90,0.14,,,2.06,WUHU216HW,2013-05-05 00:57:00,
2013-05-04 21:01:00,53.1,50.2,29.76,North,0,0.0,0.7,90,0.14,,,2.07,WUHU216HW,2013-05-05 01:01:00,
2013-05-04 21:03:00,53.1,50.2,29.76,NNW,338,1.1,1.1,90,0.14,,,2.08,WUHU216HW,2013-05-05 01:03:00,
2013-05-04 21:07:00,53.1,50.2,29.76,North,0,1.6,1.6,90,0.14,,,2.09,WUHU216HW,2013-05-05 01:07:00,
2013-05-04 21:08:00,53.1,50.2,29.76,North,4,1.0,1.6,90,0.14,,,2.09,WUHU216HW,2013-05-05 01:08:00,
2013-05-04 21:09:00,53.1,50.2,29.76,NNW,338,1.1,1.6,90,0.13,,,2.09,WUHU216HW,2013-05-05 01:09:00,
2013-05-04 21:12:00,52.9,50.0,29.76,NNW,338,0.9,1.6,90,0.12,,,2.09,WUHU216HW,2013-05-05 01:12:00,
2013-05-04 21:13:00,52.9,50.0,29.76,NNW,338,0.0,1.6,90,0.12,,,2.09,WUHU216HW,2013-05-05 01:13:00,
2013-05-04 21:14:00,52.9,50.0,29.76,NNW,338,0.0,1.6,90,0.12,,,2.10,WUHU216HW,2013-05-05 01:14:00,
2013-05-04 21:16:00,52.9,50.0,29.76,NNW,338,0.0,1.1,90,0.12,,,2.11,WUHU216HW,2013-05-05 01:16:00,
2013-05-04 21:17:00,53.1,50.2,29.76,NNW,338,0.0,1.1,90,0.12,,,2.11,WUHU216HW,2013-05-05 01:17:00,
2013-05-04 21:18:00,53.1,50.2,29.76,NNW,338,0.0,1.1,90,0.12,,,2.11,WUHU216HW,2013-05-05 01:18:00,
2013-05-04 21:19:00,52.9,50.0,29.76,NNW,338,0.0,0.9,90,0.13,,,2.12,WUHU216HW,2013-05-05 01:19:00,
2013-05-04 21:20:00,52.9,50.3,29.76,NNW,338,0.0,0.9,91,0.13,,,2.12,WUHU216HW,2013-05-05 01:20:00,
2013-05-04 21:23:00,52.9,50.0,29.76,North,0,0.2,0.2,90,0.13,,,2.13,WUHU216HW,2013-05-05 01:23:00,
2013-05-04 21:24:00,52.9,50.0,29.76,North,0,0.9,0.9,90,0.13,,,2.13,WUHU216HW,2013-05-05 01:24:00,
2013-05-04 21:25:00,52.9,50.3,29.76,North,0,0.8,0.9,91,0.13,,,2.13,WUHU216HW,2013-05-05 01:25:00,
2013-05-04 21:29:00,52.9,50.3,29.76,NNW,338,1.1,1.3,91,0.13,,,2.13,WUHU216HW,2013-05-05 01:29:00,
2013-05-04 21:30:00,52.9,50.3,29.76,NNW,338,1.1,1.3,91,0.14,,,2.14,WUHU216HW,2013-05-05 01:30:00,
2013-05-04 21:31:00,52.9,50.3,29.76,NNW,338,1.1,1.3,91,0.14,,,2.14,WUHU216HW,2013-05-05 01:31:00,
2013-05-04 21:35:00,52.9,50.3,29.76,North,0,0.7,1.3,91,0.15,,,2.15,WUHU216HW,2013-05-05 01:35:00,
2013-05-04 21:36:00,52.9,50.3,29.76,North,0,0.7,1.3,91,0.15,,,2.15,WUHU216HW,2013-05-05 01:36:00,
2013-05-04 21:37:00,52.9,50.3,29.76,NW,315,0.9,1.3,91,0.15,,,2.15,WUHU216HW,2013-05-05 01:37:00,
2013-05-04 21:38:00,52.9,50.3,29.76,NW,322,0.6,1.1,91,0.15,,,2.15,WUHU216HW,2013-05-05 01:38:00,
2013-05-04 21:40:00,52.9,50.3,29.76,NNE,13,0.6,1.1,91,0.15,,,2.16,WUHU216HW,2013-05-05 01:40:00,
2013-05-04 21:41:00,52.9,50.3,29.76,NE,45,0.4,0.9,91,0.15,,,2.16,WUHU216HW,2013-05-05 01:41:00,
2013-05-04 21:43:00,52.9,50.3,29.76,North,0,0.4,0.9,91,0.15,,,2.16,WUHU216HW,2013-05-05 01:43:00,
2013-05-04 21:44:00,52.9,50.3,29.76,North,0,0.4,0.9,91,0.17,,,2.18,WUHU216HW,2013-05-05 01:44:00,
2013-05-04 21:45:00,52.7,50.1,29.76,North,0,0.3,0.9,91,0.17,,,2.18,WUHU216HW,2013-05-05 01:45:00,
2013-05-04 21:46:00,52.9,50.3,29.76,North,0,0.7,0.9,91,0.17,,,2.18,WUHU216HW,2013-05-05 01:46:00,
2013-05-04 21:47:00,52.7,50.1,29.77,North,0,0.9,0.9,91,0.16,,,2.18,WUHU216HW,2013-05-05 01:47:00,
2013-05-04 21:49:00,52.7,50.1,29.77,North,0,0.7,0.9,91,0.16,,,2.18,WUHU216HW,2013-05-05 01:49:00,
2013-05-04 21:52:00,52.7,50.1,29.77,ENE,68,0.2,0.9,91,0.14,,,2.18,WUHU216HW,2013-05-05 01:52:00,
2013-05-04 21:53:00,52.7,50.1,29.77,SSE,158,0.7,0.9,91,0.15,,,2.20,WUHU216HW,2013-05-05 01:53:00,
2013-05-04 21:55:00,52.7,50.1,29.78,South,180,1.1,1.1,91,0.15,,,2.20,WUHU216HW,2013-05-05 01:55:00,
2013-05-04 21:57:00,52.9,50.3,29.77,West,270,1.3,1.3,91,0.13,,,2.20,WUHU216HW,2013-05-05 01:57:00,
2013-05-04 21:59:00,52.7,50.1,29.77,West,270,0.8,1.3,91,0.13,,,2.20,WUHU216HW,2013-05-05 01:59:00,
2013-05-04 22:00:00,52.7,50.1,29.77,West,270,0.4,1.3,91,0.12,,,2.20,WUHU216HW,2013-05-05 02:00:00,
2013-05-04 22:01:00,52.9,50.3,29.77,West,270,0.4,1.3,91,0.14,,,2.22,WUHU216HW,2013-05-05 02:01:00,
2013-05-04 22:04:00,52.9,50.3,29.77,NNW,344,0.6,1.3,91,0.14,,,2.22,WUHU216HW,2013-05-05 02:04:00,
2013-05-04 22:05:00,52.7,50.1,29.77,ENE,68,1.1,1.3,91,0.14,,,2.23,WUHU216HW,2013-05-05 02:05:00,
2013-05-04 22:06:00,52.7,50.1,29.77,ENE,68,1.1,1.3,91,0.14,,,2.23,WUHU216HW,2013-05-05 02:06:00,
2013-05-04 22:09:00,52.7,50.1,29.77,NNW,338,0.4,1.1,91,0.16,,,2.25,WUHU216HW,2013-05-05 02:09:00,
2013-05-04 22:10:00,52.7,50.1,29.77,NNW,338,0.4,1.1,91,0.16,,,2.25,WUHU216HW,2013-05-05 02:10:00,
2013-05-04 22:11:00,52.7,50.1,29.77,NNW,338,0.0,1.1,91,0.16,,,2.25,WUHU216HW,2013-05-05 02:11:00,
2013-05-04 22:15:00,52.7,50.1,29.78,NNW,338,0.0,0.4,91,0.14,,,2.25,WUHU216HW,2013-05-05 02:15:00,
2013-05-04 22:16:00,52.7,50.1,29.78,NNW,338,0.7,0.7,91,0.16,,,2.27,WUHU216HW,2013-05-05 02:16:00,
2013-05-04 22:17:00,52.7,50.1,29.78,NNW,338,0.7,0.7,91,0.15,,,2.27,WUHU216HW,2013-05-05 02:17:00,
2013-05-04 22:18:00,52.7,50.1,29.78,NNW,338,0.7,0.7,91,0.15,,,2.27,WUHU216HW,2013-05-05 02:18:00,
2013-05-04 22:20:00,52.7,50.1,29.78,NNW,338,0.3,0.7,91,0.14,,,2.27,WUHU216HW,2013-05-05 02:20:00,
2013-05-04 22:22:00,52.7,50.1,29.78,SW,225,0.9,1.8,91,0.16,,,2.29,WUHU216HW,2013-05-05 02:22:00,
2013-05-04 22:23:00,52.7,50.1,29.78,SW,225,0.9,1.8,91,0.16,,,2.29,WUHU216HW,2013-05-05 02:23:00,
2013-05-04 22:24:00,52.9,50.3,29.78,SW,225,0.9,1.8,91,0.16,,,2.29,WUHU216HW,2013-05-05 02:24:00,
2013-05-04 22:25:00,52.7,50.1,29.78,SW,225,0.0,1.8,91,0.17,,,2.30,WUHU216HW,2013-05-05 02:25:00,
2013-05-04 22:26:00,52.7,50.1,29.78,SW,225,0.0,1.8,91,0.17,,,2.30,WUHU216HW,2013-05-05 02:26:00,
2013-05-04 22:28:00,52.7,50.1,29.78,SW,225,0.0,1.8,91,0.17,,,2.31,WUHU216HW,2013-05-05 02:28:00,
2013-05-04 22:29:00,52.7,50.1,29.78,SW,225,0.0,1.8,91,0.17,,,2.31,WUHU216HW,2013-05-05 02:29:00,
2013-05-04 22:31:00,52.7,50.1,29.78,SW,225,0.0,0.9,91,0.18,,,2.32,WUHU216HW,2013-05-05 02:31:00,
2013-05-04 22:32:00,52.7,50.1,29.78,SW,225,0.0,0.9,91,0.18,,,2.32,WUHU216HW,2013-05-05 02:32:00,
2013-05-04 22:33:00,52.7,50.1,29.78,SW,225,0.0,0.0,91,0.18,,,2.33,WUHU216HW,2013-05-05 02:33:00,
2013-05-04 22:34:00,52.7,50.1,29.78,NNW,338,1.1,1.1,91,0.18,,,2.33,WUHU216HW,2013-05-05 02:34:00,
2013-05-04 22:35:00,52.7,50.1,29.78,NNW,338,0.7,1.1,91,0.18,,,2.33,WUHU216HW,2013-05-05 02:35:00,
2013-05-04 22:37:00,52.7,50.1,29.78,NNW,338,0.0,1.1,91,0.18,,,2.34,WUHU216HW,2013-05-05 02:37:00,
2013-05-04 22:38:00,52.7,50.1,29.78,NNW,338,0.0,1.1,91,0.18,,,2.34,WUHU216HW,2013-05-05 02:38:00,
2013-05-04 22:39:00,52.7,50.1,29.78,NNW,338,0.0,1.1,91,0.18,,,2.34,WUHU216HW,2013-05-05 02:39:00,
2013-05-04 22:40:00,52.7,50.1,29.78,NNW,338,0.0,1.1,91,0.19,,,2.35,WUHU216HW,2013-05-05 02:40:00,
2013-05-04 22:42:00,52.7,50.1,29.78,NW,315,0.4,1.1,91,0.17,,,2.35,WUHU216HW,2013-05-05 02:42:00,
2013-05-04 22:43:00,52.7,50.1,29.78,NW,315,0.0,1.1,91,0.18,,,2.36,WUHU216HW,2013-05-05 02:43:00,
2013-05-04 22:45:00,52.7,50.1,29.78,NW,315,0.0,0.4,91,0.19,,,2.37,WUHU216HW,2013-05-05 02:45:00,
2013-05-04 22:48:00,52.7,50.1,29.78,NNW,338,1.3,1.3,91,0.20,,,2.38,WUHU216HW,2013-05-05 02:48:00,
2013-05-04 22:50:00,52.6,50.0,29.77,NNW,338,0.7,1.3,91,0.20,,,2.38,WUHU216HW,2013-05-05 02:50:00,
2013-05-04 22:51:00,52.6,50.0,29.78,NNW,338,0.7,1.3,91,0.18,,,2.38,WUHU216HW,2013-05-05 02:51:00,
2013-05-04 22:53:00,52.6,50.0,29.78,NNW,338,0.4,1.3,91,0.20,,,2.40,WUHU216HW,2013-05-05 02:53:00,
2013-05-04 22:54:00,52.6,50.0,29.78,NNW,338,0.4,1.3,91,0.20,,,2.40,WUHU216HW,2013-05-05 02:54:00,
2013-05-04 22:56:00,52.6,50.0,29.78,SSE,158,1.1,1.3,91,0.20,,,2.40,WUHU216HW,2013-05-05 02:56:00,
2013-05-04 22:59:00,52.6,50.0,29.78,North,0,1.1,1.1,91,0.19,,,2.41,WUHU216HW,2013-05-05 02:59:00,
2013-05-04 23:00:00,52.6,50.0,29.77,North,0,1.6,1.6,91,0.19,,,2.41,WUHU216HW,2013-05-05 03:00:00,
2013-05-04 23:02:00,52.6,50.0,29.77,North,0,0.9,1.6,91,0.20,,,2.42,WUHU216HW,2013-05-05 03:02:00,
2013-05-04 23:04:00,52.6,50.0,29.77,North,0,0.0,1.6,91,0.19,,,2.42,WUHU216HW,2013-05-05 03:04:00,
2013-05-04 23:05:00,52.6,50.0,29.77,NNE,23,0.0,1.6,91,0.18,,,2.43,WUHU216HW,2013-05-05 03:05:00,
2013-05-04 23:06:00,52.6,50.0,29.77,NNE,23,0.0,1.6,91,0.18,,,2.43,WUHU216HW,2013-05-05 03:06:00,
2013-05-04 23:07:00,52.6,50.0,29.77,NNE,23,0.0,1.6,91,0.19,,,2.44,WUHU216HW,2013-05-05 03:07:00,
2013-05-04 23:10:00,52.4,49.8,29.77,North,0,0.0,1.6,91,0.19,,,2.44,WUHU216HW,2013-05-05 03:10:00,
2013-05-04 23:11:00,52.4,49.8,29.77,North,0,0.4,0.4,91,0.20,,,2.45,WUHU216HW,2013-05-05 03:11:00,
2013-05-04 23:13:00,52.6,50.0,29.77,North,0,0.4,0.4,91,0.21,,,2.46,WUHU216HW,2013-05-05 03:13:00,
2013-05-04 23:14:00,52.6,50.0,29.77,North,0,0.2,0.4,91,0.19,,,2.46,WUHU216HW,2013-05-05 03:14:00,
2013-05-04 23:15:00,52.6,50.0,29.76,NNE,23,0.0,0.4,91,0.20,,,2.47,WUHU216HW,2013-05-05 03:15:00,
2013-05-04 23:16:00,52.6,50.0,29.76,NNE,23,0.0,0.4,91,0.20,,,2.47,WUHU216HW,2013-05-05 03:16:00,
2013-05-04 23:17:00,52.6,50.0,29.76,North,0,0.0,0.4,91,0.21,,,2.48,WUHU216HW,2013-05-05 03:17:00,
2013-05-04 23:18:00,52.6,50.0,29.76,North,0,0.2,0.4,91,0.21,,,2.48,WUHU216HW,2013-05-05 03:18:00,
2013-05-04 23:19:00,52.6,50.0,29.76,North,0,0.2,0.4,91,0.21,,,2.48,WUHU216HW,2013-05-05 03:19:00,
2013-05-04 23:20:00,52.6,50.0,29.76,North,0,0.2,0.4,91,0.19,,,2.48,WUHU216HW,2013-05-05 03:20:00,
2013-05-04 23:22:00,52.6,50.0,29.76,NNW,338,0.4,0.4,91,0.20,,,2.49,WUHU216HW,2013-05-05 03:22:00,
2013-05-04 23:23:00,52.6,50.0,29.76,NNW,338,0.4,0.4,91,0.19,,,2.49,WUHU216HW,2013-05-05 03:23:00,
2013-05-04 23:24:00,52.6,50.0,29.76,NNW,338,0.9,0.9,91,0.19,,,2.49,WUHU216HW,2013-05-05 03:24:00,
2013-05-04 23:26:00,52.6,50.0,29.76,NNW,338,1.1,1.1,91,0.19,,,2.50,WUHU216HW,2013-05-05 03:26:00,
2013-05-04 23:27:00,52.6,50.0,29.76,NNW,338,0.8,1.1,91,0.19,,,2.50,WUHU216HW,2013-05-05 03:27:00,
2013-05-04 23:28:00,52.4,49.8,29.76,NNW,338,0.4,1.1,91,0.19,,,2.50,WUHU216HW,2013-05-05 03:28:00,
2013-05-04 23:29:00,52.4,49.8,29.76,NNW,338,0.0,1.1,91,0.18,,,2.50,WUHU216HW,2013-05-05 03:29:00,
2013-05-04 23:30:00,52.4,49.8,29.76,North,0,1.1,1.1,91,0.18,,,2.50,WUHU216HW,2013-05-05 03:30:00,
2013-05-04 23:32:00,52.4,49.8,29.76,NNW,338,1.1,1.1,91,0.17,,,2.50,WUHU216HW,2013-05-05 03:32:00,
2013-05-04 23:33:00,52.4,49.8,29.76,NNW,338,1.0,1.1,91,0.17,,,2.50,WUHU216HW,2013-05-05 03:33:00,
2013-05-04 23:34:00,52.4,49.8,29.76,NNW,338,0.6,1.1,91,0.17,,,2.51,WUHU216HW,2013-05-05 03:34:00,
2013-05-04 23:35:00,52.4,49.8,29.76,NNW,338,0.4,1.1,91,0.17,,,2.51,WUHU216HW,2013-05-05 03:35:00,
2013-05-04 23:38:00,52.2,49.6,29.76,NNW,338,1.1,1.1,91,0.17,,,2.51,WUHU216HW,2013-05-05 03:38:00,
2013-05-04 23:39:00,52.2,49.6,29.76,WNW,293,0.4,1.1,91,0.17,,,2.52,WUHU216HW,2013-05-05 03:39:00,
2013-05-04 23:40:00,52.2,49.6,29.76,North,0,0.4,1.1,91,0.17,,,2.52,WUHU216HW,2013-05-05 03:40:00,
2013-05-04 23:41:00,52.2,49.6,29.76,North,0,0.4,1.1,91,0.17,,,2.52,WUHU216HW,2013-05-05 03:41:00,
2013-05-04 23:43:00,52.2,49.6,29.76,NNE,23,1.1,1.1,91,0.17,,,2.53,WUHU216HW,2013-05-05 03:43:00,
2013-05-04 23:44:00,52.2,49.6,29.75,NNW,338,1.1,1.1,91,0.17,,,2.54,WUHU216HW,2013-05-05 03:44:00,
2013-05-04 23:45:00,52.2,49.6,29.76,NNW,338,2.2,2.2,91,0.16,,,2.54,WUHU216HW,2013-05-05 03:45:00,
2013-05-04 23:46:00,52.0,49.4,29.75,NNW,338,2.0,2.2,91,0.16,,,2.54,WUHU216HW,2013-05-05 03:46:00,
2013-05-04 23:48:00,52.0,49.4,29.75,NNW,338,1.3,2.2,91,0.17,,,2.55,WUHU216HW,2013-05-05 03:48:00,
2013-05-04 23:50:00,52.0,49.4,29.76,NE,45,1.1,2.2,91,0.17,,,2.56,WUHU216HW,2013-05-05 03:50:00,
2013-05-04 23:51:00,51.8,49.2,29.76,NNE,33,0.8,2.2,91,0.16,,,2.56,WUHU216HW,2013-05-05 03:51:00,
2013-05-04 23:54:00,51.8,49.2,29.76,NW,315,0.0,2.2,91,0.16,,,2.56,WUHU216HW,2013-05-05 03:54:00,
2013-05-04 23:55:00,51.8,49.2,29.76,NW,315,0.0,1.8,91,0.16,,,2.56,WUHU216HW,2013-05-05 03:55:00,
2013-05-04 23:56:00,51.8,49.2,29.76,NNW,338,0.2,1.1,91,0.17,,,2.57,WUHU216HW,2013-05-05 03:56:00,
2013-05-04 23:57:00,51.8,49.2,29.76,NNW,338,0.2,1.1,91,0.17,,,2.57,WUHU216HW,2013-05-05 03:57:00,